ECMWFFLT1_850_spd_000.txt.gz
Wind_Speed
40 41 43 44 44 46 47 47 47 46 45 43 40 40 40 40 39 37 36 34 32 30 29 27 26 26 25 23 19 16 14 10 8 8 8 9 10 11 11 11 11 12 12 11 12 12 12 11 10 10 10 8 6 5 4 3 3 3 3 3 3 4 5
38 40 41 42 43 45 47 48 48 48 47 45 43 42 43 43 42 41 39 37 35 33 30 29 27 26 25 23 20 17 14 11 9 8 9 9 10 10 10 10 10 10 10 10 10 10 11 10 9 8 8 8 8 8 6 5 4 5 4 4 5 7 9
38 39 41 43 45 47 48 48 49 50 49 47 46 44 45 45 44 43 42 40 38 35 32 30 29 27 26 25 23 19 15 12 10 9 8 8 8 9 10 9 9 9 9 9 9 9 8 8 7 6 7 9 11 10 8 7 6 7 6 6 7 9 11
39 42 43 45 46 47 48 49 50 50 51 50 48 47 47 47 46 45 43 42 41 39 36 33 31 30 29 27 25 20 16 13 11 9 8 8 8 9 9 9 8 9 9 8 8 7 6 6 7 7 8 11 12 11 10 9 9 8 8 8 9 10 12
38 40 41 41 43 45 47 49 51 51 52 51 50 49 48 47 47 46 44 43 42 40 37 35 33 32 31 29 26 22 17 13 11 10 9 9 9 9 9 8 7 7 8 7 7 6 6 8 9 9 9 10 12 12 11 10 10 10 10 10 11 11 13
37 40 41 42 44 46 48 51 52 52 53 53 52 51 50 50 49 47 46 45 43 41 38 36 35 35 34 31 27 23 18 14 12 10 9 9 10 10 8 7 6 7 7 7 6 5 6 8 9 9 8 9 11 12 12 11 10 11 11 11 11 12 12
40 42 44 45 46 48 50 52 52 53 54 54 54 52 52 52 51 49 48 46 46 43 41 38 36 37 36 32 29 25 19 15 13 11 10 10 10 10 8 7 6 6 7 7 6 6 6 7 8 7 8 8 9 9 10 10 10 10 10 10 10 11 12
40 42 44 46 48 50 51 52 54 55 55 54 53 53 54 54 52 52 50 49 49 46 43 40 38 38 37 33 29 25 20 16 13 11 11 10 10 11 9 8 7 7 7 7 6 7 8 8 8 8 8 8 8 9 10 10 10 9 9 9 10 11 12
39 43 46 48 50 51 52 53 55 55 54 54 54 55 55 55 55 54 53 52 51 49 46 41 39 38 37 35 30 26 21 17 14 12 11 11 12 12 10 9 9 9 7 6 6 8 10 10 10 10 10 9 10 11 10 10 10 9 10 11 11 12 13
38 43 47 48 50 52 53 53 53 53 54 54 54 54 55 55 55 55 54 53 52 50 46 42 40 39 38 36 31 26 23 19 16 14 12 12 13 13 12 10 10 9 7 6 7 9 10 11 11 11 10 10 10 10 9 10 11 12 12 12 13 14 15
40 43 46 48 50 52 51 51 51 53 54 55 54 55 55 55 56 55 55 54 53 50 46 43 41 40 39 36 31 28 26 21 16 16 14 12 14 14 12 11 10 10 8 8 9 9 10 11 12 11 11 11 11 10 10 11 13 14 14 15 14 15 15
40 42 44 47 49 50 50 50 51 53 54 55 55 55 56 56 56 56 55 54 52 49 46 43 43 42 40 37 32 30 29 23 18 18 14 12 14 14 12 10 9 9 9 9 10 10 12 14 13 12 12 12 12 11 11 13 14 16 17 16 14 12 13
39 42 44 46 46 48 48 47 48 51 52 54 55 55 56 57 56 56 55 54 51 48 45 44 45 43 41 38 33 32 32 25 20 19 15 11 13 13 11 10 9 10 11 11 13 14 15 15 13 12 12 12 11 11 12 13 15 16 16 13 10 10 12
38 40 41 43 43 44 45 45 47 50 52 54 55 56 56 57 56 55 55 53 50 47 45 45 46 44 42 39 36 35 33 25 19 19 16 12 12 12 10 9 9 10 12 13 15 16 15 13 13 14 13 11 10 11 13 14 16 15 13 11 10 11 13
35 37 38 39 39 41 43 45 47 50 53 55 56 56 56 56 56 55 55 53 50 48 46 46 47 45 43 41 38 37 34 24 20 21 18 14 13 11 9 9 9 11 12 13 15 15 14 14 15 15 12 10 11 12 13 15 15 15 14 12 12 13 14
31 34 36 35 35 37 41 44 47 49 52 54 55 56 57 56 56 56 56 55 52 49 47 47 47 46 44 44 42 39 34 25 23 24 21 18 14 11 10 9 10 11 12 13 14 13 13 13 14 12 10 10 10 11 13 14 13 13 13 13 13 15 17
29 31 33 33 33 34 37 42 45 48 51 53 55 57 57 56 56 56 56 56 54 51 48 48 49 47 46 45 42 39 34 25 24 27 24 19 15 11 11 10 11 12 12 13 13 12 12 11 11 10 9 9 11 12 13 14 13 12 13 13 15 17 19
28 27 27 28 30 32 35 40 43 45 49 52 54 56 56 56 55 55 56 57 55 52 49 49 49 46 46 44 40 38 32 22 24 30 26 19 16 13 11 11 13 14 14 14 14 12 11 10 10 10 10 11 13 14 14 13 13 14 15 15 16 18 19
25 23 20 19 20 23 27 32 35 40 46 49 52 54 54 55 55 55 56 56 55 53 51 50 49 48 48 44 39 38 31 20 24 31 25 19 17 14 12 14 15 15 15 15 13 12 12 11 11 12 13 14 15 15 14 14 15 16 17 18 19 19 19
21 19 17 14 12 12 14 17 22 29 37 45 49 49 49 52 53 53 53 54 55 54 52 51 50 49 49 44 40 38 28 22 28 31 23 18 19 16 15 16 16 16 16 15 13 13 13 13 14 14 15 17 17 17 17 17 18 18 19 20 20 20 19
16 14 13 11 8 7 8 9 11 16 25 34 40 44 47 50 51 52 53 53 53 51 50 49 47 46 46 43 41 36 24 20 27 29 23 21 22 20 18 17 17 17 17 16 14 14 14 14 15 15 17 20 21 20 19 19 20 20 21 21 20 19 19
14 12 9 7 5 5 7 7 7 9 13 20 28 36 42 46 49 51 50 47 43 40 41 43 41 42 42 41 41 35 23 21 26 28 28 27 24 23 21 18 18 18 17 17 16 15 15 15 16 17 20 23 23 21 20 20 21 22 22 22 21 21 21
14 11 6 5 4 4 7 5 3 3 6 12 19 27 33 39 44 45 41 39 39 39 41 43 44 44 44 45 42 31 20 20 25 29 33 32 27 24 22 20 18 17 17 19 18 17 18 19 19 19 20 22 21 19 19 21 21 22 22 23 23 22 22
13 8 2 4 6 4 5 5 2 1 4 9 16 22 29 36 40 38 37 41 44 45 44 44 45 44 46 47 39 25 19 22 25 30 35 34 28 25 23 22 20 19 19 20 21 22 25 25 22 20 21 21 19 18 21 22 21 21 22 23 22 21 21
9 4 3 5 6 7 9 8 4 5 7 9 12 18 25 35 39 37 37 41 43 43 42 41 41 42 46 48 38 25 24 26 25 28 35 35 29 25 24 23 21 20 21 23 25 26 28 26 21 20 22 23 21 20 22 22 20 19 20 20 21 21 21
3 3 6 7 7 7 7 7 7 10 12 12 11 13 20 30 36 36 37 38 40 42 42 40 40 42 46 46 37 28 27 27 24 27 31 31 28 26 25 23 21 22 23 25 26 27 28 24 18 16 18 20 19 19 19 19 17 16 17 19 21 22 22
1 1 2 2 5 7 9 11 12 13 13 12 10 10 13 22 30 35 39 40 42 46 44 37 36 41 44 39 31 27 28 25 22 24 26 25 25 25 25 24 24 25 25 26 26 25 22 18 15 16 16 15 14 14 15 15 15 16 18 20 20 20 20
4 4 5 8 10 13 16 17 16 16 16 14 11 10 11 16 24 32 38 41 44 46 42 33 30 36 40 36 29 29 31 26 21 20 21 21 23 26 28 28 27 26 24 22 21 18 15 13 18 18 13 12 12 12 14 15 16 19 20 20 19 19 19
9 9 10 10 10 14 17 17 17 18 18 15 12 12 12 15 21 28 35 39 41 41 38 29 26 30 34 35 32 32 30 25 20 18 19 22 25 29 31 29 26 24 22 20 19 18 17 18 18 13 11 11 13 14 15 17 19 21 21 19 19 19 19
14 14 14 14 12 13 15 17 18 18 16 14 12 13 13 16 21 27 31 32 33 34 32 27 26 28 29 29 30 31 28 25 22 20 20 23 26 30 31 29 25 22 22 21 22 22 21 17 13 12 13 15 15 16 18 20 22 22 21 19 19 18 18
17 15 14 15 14 13 16 19 19 17 16 13 11 11 13 17 22 25 26 26 25 26 25 23 25 27 25 23 24 27 26 22 17 13 12 16 20 24 25 24 23 22 21 21 22 19 15 13 14 15 16 17 17 18 21 22 22 21 19 18 17 17 18
17 15 13 13 13 14 15 17 16 15 13 11 11 13 17 21 22 19 18 20 21 21 21 23 26 25 22 21 20 17 13 8 3 4 7 11 14 17 18 19 19 18 17 16 16 14 13 15 16 17 17 17 18 20 21 21 21 20 18 17 17 17 17
16 15 14 13 11 12 12 12 13 13 12 12 14 16 19 20 20 16 13 15 18 17 14 17 20 18 15 15 14 9 3 3 6 8 9 11 15 17 19 19 18 15 13 13 14 14 14 15 15 15 16 18 19 20 21 22 21 20 19 17 16 15 15
15 15 13 12 10 11 11 11 13 15 16 16 16 18 17 14 14 15 14 12 12 13 15 16 13 12 12 11 8 4 6 9 11 12 12 16 21 22 20 18 15 13 11 12 13 13 13 13 14 15 17 18 20 21 21 21 20 20 19 17 15 14 14
13 13 12 11 10 10 10 11 15 19 20 20 20 20 19 19 22 24 22 20 19 17 14 14 16 15 14 12 11 10 11 11 10 13 17 20 22 21 18 16 14 12 11 11 12 12 12 13 15 16 17 18 20 21 21 19 18 17 16 15 15 14 15
11 11 11 11 9 9 11 13 17 21 22 22 22 24 26 27 27 25 24 22 19 14 9 10 13 14 13 13 14 13 11 11 12 17 20 21 19 18 16 15 13 13 12 12 12 13 13 14 15 16 17 19 21 20 19 17 15 14 14 15 14 15 16
10 10 9 10 9 10 13 18 22 24 25 26 27 30 31 28 23 19 16 15 13 9 7 6 8 5 3 5 5 4 9 13 17 20 21 19 17 16 15 15 15 14 14 13 14 14 14 14 15 16 18 20 20 19 18 15 13 13 14 14 14 15 15
11 10 10 10 12 14 18 23 26 26 26 27 27 27 26 21 14 8 8 12 14 12 10 13 12 10 13 12 9 12 17 19 20 20 20 19 18 17 17 17 17 16 15 15 15 16 15 15 16 17 19 20 18 17 15 13 12 13 14 14 14 14 14

ECMWFFLT1_850_spd_003.txt.gz
Wind_Speed
37 38 41 43 45 46 47 49 49 48 48 46 44 41 39 39 39 38 38 38 38 38 37 36 35 33 30 28 26 23 21 18 17 17 18 19 20 19 18 18 17 16 15 13 13 13 13 11 9 8 7 7 7 7 7 7 7 7 7 6 6 6 5
36 38 41 43 45 46 47 48 48 49 49 48 47 44 42 42 41 41 42 42 42 41 40 39 37 34 32 29 27 25 22 20 19 19 20 21 21 19 18 17 17 15 14 14 14 14 14 13 11 9 9 8 6 5 5 6 7 8 8 8 8 8 8
38 39 41 44 46 47 47 47 47 48 49 49 48 46 44 44 44 44 45 46 45 44 42 40 38 35 33 31 30 27 24 22 21 22 22 22 20 18 17 16 16 15 14 15 15 15 15 14 13 11 9 8 6 6 7 8 8 9 9 10 10 10 10
40 42 43 44 46 47 46 47 48 49 50 49 49 47 46 46 45 46 47 48 48 46 44 41 39 37 35 33 31 29 26 24 23 23 23 20 18 16 17 17 17 15 15 15 15 15 15 14 13 11 8 7 7 8 11 11 10 11 11 12 12 12 13
40 41 41 41 43 44 45 46 48 49 50 50 50 49 47 47 47 47 48 49 49 47 45 42 40 39 36 33 31 30 28 26 24 23 22 19 17 17 18 18 17 16 15 14 14 15 14 13 11 9 7 7 8 10 12 12 12 12 12 12 12 13 13
38 39 40 41 42 44 46 47 49 50 51 50 51 51 49 49 49 49 49 50 51 49 46 44 43 41 38 35 33 31 30 28 26 24 21 19 18 18 19 18 17 16 14 13 14 14 13 11 9 7 7 7 8 9 11 12 11 11 10 10 10 11 11
40 41 42 43 44 46 47 48 50 51 51 51 51 51 51 51 51 51 51 51 52 51 49 47 46 43 40 38 36 33 31 30 27 25 22 19 18 18 17 17 17 16 14 14 14 14 12 10 8 8 7 7 8 8 9 10 9 9 9 9 9 9 9
42 43 45 45 46 47 47 48 49 50 51 51 51 51 52 52 52 53 52 52 53 52 52 50 48 46 43 40 38 35 33 31 29 26 22 20 18 17 17 17 17 16 15 14 14 14 12 10 8 8 8 7 7 8 8 8 8 8 9 9 10 10 10
42 44 47 47 47 47 46 47 48 49 50 50 51 52 52 53 54 54 55 54 54 54 54 52 50 47 44 42 40 37 35 32 30 27 23 21 19 17 17 17 17 17 16 15 14 14 12 10 9 9 8 8 8 7 7 7 7 8 8 9 10 11 12
40 43 45 46 46 47 45 46 47 47 48 50 51 52 53 54 55 55 55 55 55 56 55 54 52 49 47 45 42 39 37 34 33 29 24 22 19 16 17 18 17 18 17 15 15 14 12 11 10 10 10 9 8 7 6 7 8 9 10 11 12 12 12
40 42 43 44 46 46 45 45 45 46 48 50 51 53 54 55 55 56 56 55 56 56 56 55 53 51 49 47 44 43 41 38 36 31 26 23 18 14 17 19 18 19 18 17 16 14 12 12 11 11 11 10 8 8 8 8 10 10 11 11 12 13 12
39 40 42 45 47 47 46 44 45 48 49 50 51 53 55 55 56 56 57 56 56 56 56 55 54 53 51 49 47 47 44 41 38 33 28 24 17 13 17 20 19 19 20 19 17 15 13 13 12 12 11 10 9 9 9 10 11 11 11 12 13 12 11
39 40 43 46 48 48 47 45 46 48 48 49 50 53 55 55 55 56 56 56 56 55 55 55 54 54 53 51 51 50 47 43 39 36 31 23 15 16 20 21 20 20 21 20 18 16 15 14 13 12 12 11 10 10 11 11 12 11 11 12 12 11 10
36 38 41 45 47 48 46 46 47 47 48 49 50 52 52 53 54 54 55 56 55 55 56 55 55 55 55 54 53 51 49 45 41 38 31 21 16 20 23 22 21 21 21 21 19 17 16 14 13 13 14 12 11 10 11 12 12 11 11 12 12 11 11
34 37 41 44 47 47 46 46 47 47 48 48 49 49 50 51 51 51 52 54 54 54 55 55 55 56 56 56 55 53 51 47 42 38 30 20 19 23 23 22 22 22 22 21 19 17 15 14 14 15 16 14 12 11 11 11 11 10 11 12 12 11 12
34 38 42 45 46 46 46 46 47 47 47 47 47 49 50 51 51 51 52 53 54 54 55 54 55 56 57 57 56 55 52 47 43 39 29 22 23 25 23 22 22 22 22 21 19 17 15 15 16 17 17 15 13 12 11 11 10 10 11 12 12 12 13
36 39 41 43 44 44 44 44 44 44 44 45 46 47 48 50 51 52 53 53 54 55 55 55 55 56 57 57 55 54 53 49 46 41 32 26 26 26 22 21 21 21 21 20 18 17 16 16 17 18 17 16 14 14 12 11 11 11 12 13 14 14 15
36 38 39 39 40 41 40 40 40 40 41 42 44 45 46 48 50 51 52 53 53 53 53 53 55 56 56 54 54 55 55 50 46 40 30 23 24 24 21 20 20 20 21 20 18 18 17 18 18 18 17 15 15 14 12 12 12 13 14 16 16 17 17
35 35 36 36 36 36 35 34 33 33 34 35 38 40 42 44 47 49 51 50 49 50 52 54 55 54 51 50 49 48 47 44 40 36 27 20 22 24 22 20 21 21 21 20 18 19 19 19 19 18 16 15 15 14 13 13 14 15 17 18 19 20 20
33 33 33 32 30 27 25 24 23 23 23 25 28 32 36 40 43 46 46 46 46 49 52 52 50 48 45 44 43 42 42 42 40 37 31 25 27 29 26 23 22 21 21 20 20 21 21 20 20 18 16 15 15 15 15 15 15 17 19 21 22 22 23
29 28 26 22 19 15 13 12 12 12 12 11 14 22 29 34 38 42 43 44 47 49 50 47 44 42 41 42 43 44 46 45 43 41 35 28 29 32 31 27 24 22 21 22 22 23 22 21 20 18 17 17 16 15 16 17 18 21 22 22 23 24 25
24 21 18 15 13 11 9 9 10 9 6 2 3 9 15 20 30 37 41 43 46 47 46 43 42 41 42 43 45 47 46 44 44 44 37 29 30 34 34 30 27 23 23 23 23 23 22 20 19 19 19 19 18 18 19 20 20 22 22 22 23 25 26
20 19 17 15 12 10 8 10 11 9 7 4 4 6 8 13 22 29 34 39 44 45 43 41 41 41 42 45 47 46 43 43 44 41 33 29 31 33 33 32 30 28 26 26 25 24 23 21 20 20 20 20 22 22 21 21 20 21 20 20 20 22 23
19 17 16 14 12 11 11 11 9 8 7 5 5 7 9 13 18 23 29 35 41 43 41 39 39 41 44 46 45 42 42 44 44 39 30 27 30 32 32 31 32 33 31 28 26 25 23 22 22 22 24 26 27 24 21 21 22 23 22 19 17 19 21
16 15 14 12 9 9 9 8 7 7 5 3 5 6 7 9 13 18 23 28 35 40 40 39 42 44 44 43 41 42 42 42 41 34 26 25 30 31 31 32 35 38 37 32 29 27 26 26 27 27 28 29 27 23 21 21 22 23 22 19 17 19 20
12 13 14 11 8 6 6 5 6 4 3 6 7 7 7 8 9 12 16 20 26 33 37 39 41 43 42 41 42 43 42 41 36 25 18 23 31 30 30 35 38 38 36 34 33 31 30 30 29 27 27 27 26 25 23 20 19 20 20 18 18 19 21
11 11 11 9 8 6 3 1 3 5 7 8 9 11 11 10 9 11 13 16 22 28 33 36 38 39 40 41 41 39 39 38 29 17 16 23 29 28 31 35 33 30 32 35 36 35 33 31 28 25 26 26 24 22 20 17 17 18 18 18 18 20 20
14 13 10 9 7 4 3 5 7 9 10 11 13 15 14 12 11 11 13 16 21 24 27 29 30 31 33 36 36 34 35 31 21 17 21 23 25 29 32 33 29 28 31 33 32 30 29 29 27 26 26 24 21 17 15 15 16 17 17 17 18 19 19
15 14 11 10 8 6 4 4 7 9 12 13 14 15 14 13 11 11 13 17 19 20 21 22 25 28 29 27 26 28 32 28 19 18 24 27 28 29 29 28 27 27 27 27 25 24 24 26 24 22 21 20 16 14 13 13 15 15 15 17 18 18 18
18 16 13 11 9 7 4 3 7 10 13 14 14 15 15 15 14 14 16 18 18 17 16 15 19 25 22 16 18 25 30 27 19 20 25 29 29 25 23 24 25 26 28 28 26 25 24 22 21 19 19 16 13 13 13 13 14 15 16 17 17 16 16
16 15 13 12 11 10 9 8 8 10 12 13 14 14 15 16 16 16 16 18 18 17 13 12 17 22 17 14 17 24 28 27 25 26 25 23 20 17 18 21 21 23 27 27 24 22 21 18 17 17 16 13 12 12 13 13 15 16 17 17 16 16 15
15 14 12 10 10 10 10 10 10 11 10 10 12 14 14 15 15 15 16 17 17 15 12 13 17 17 14 14 16 20 24 25 24 20 13 8 4 5 12 17 17 17 20 21 20 19 18 15 15 13 12 12 12 13 13 15 16 17 17 17 16 16 15
16 16 14 12 10 8 8 8 9 10 9 9 12 14 14 14 14 14 14 15 14 12 10 12 14 12 9 10 12 11 12 14 12 10 8 5 3 4 10 15 15 14 16 17 17 16 15 13 11 11 11 12 13 14 14 15 16 16 17 16 16 15 14
14 15 15 15 15 13 11 10 9 10 10 11 14 15 15 15 13 13 13 12 11 10 10 12 13 14 17 19 17 15 14 13 11 9 6 3 5 8 10 11 14 16 17 17 16 14 13 11 10 10 11 11 13 13 13 15 16 16 16 15 15 14 14
15 15 14 14 15 14 13 11 11 11 12 13 15 16 16 15 13 13 14 13 12 13 14 17 20 22 24 22 19 18 16 13 11 9 6 3 5 9 10 13 17 19 18 16 14 13 11 9 9 10 11 11 12 12 13 15 16 15 15 16 15 15 15
15 14 13 12 11 10 12 12 12 12 13 15 17 17 17 16 16 16 16 15 15 14 13 14 17 20 20 18 16 15 14 10 10 13 14 10 10 13 15 17 19 20 17 15 14 12 11 10 10 11 12 12 12 13 14 16 16 16 16 16 16 16 16
7 7 11 13 12 12 13 13 13 14 15 17 18 19 20 19 18 18 18 17 16 11 6 9 14 15 13 11 10 12 14 13 14 17 20 19 17 18 18 19 20 20 18 16 15 13 12 12 12 12 12 12 12 14 15 17 18 17 17 16 16 16 17
5 7 11 15 16 16 16 15 14 15 17 19 20 22 22 19 19 19 18 15 14 8 6 9 14 12 9 10 13 13 13 13 13 16 19 20 19 19 18 19 21 20 18 16 15 15 14 13 13 12 12 12 14 15 16 18 18 18 17 16 16 16 17

ECMWFFLT1_850_spd_006.txt.gz
Wind_Speed
36 39 42 44 45 46 46 47 47 48 47 46 44 43 41 40 38 37 36 37 37 37 37 38 38 38 37 35 32 30 28 27 25 22 20 19 18 17 16 16 17 18 17 17 17 16 15 13 11 11 10 9 9 9 9 9 10 10 10 10 9 9 9
35 38 41 43 45 46 46 47 47 48 48 47 46 44 43 42 41 40 39 39 39 39 39 40 40 39 38 36 33 31 29 27 25 23 21 20 19 17 17 17 17 17 17 17 16 16 15 14 13 12 11 10 10 10 11 11 11 11 11 11 11 12 12
36 39 42 44 46 47 48 47 48 48 48 48 46 45 44 44 43 42 42 41 41 41 41 42 42 41 39 37 35 33 31 29 26 24 23 21 19 18 17 18 18 18 18 18 17 17 16 15 15 14 13 12 11 11 12 13 12 11 12 13 13 13 13
38 41 43 44 46 48 48 49 49 49 49 48 46 45 44 44 44 44 43 43 43 43 43 44 44 43 41 39 37 35 32 30 28 25 24 22 20 18 19 20 20 20 20 19 19 19 18 17 17 15 15 14 13 13 13 12 11 10 11 12 13 13 14
38 40 40 41 44 46 47 48 49 49 49 48 46 45 44 44 44 45 45 44 44 44 44 45 45 44 42 40 39 36 33 31 29 27 25 23 21 20 21 22 22 23 22 21 21 21 20 19 17 17 17 16 14 14 12 11 10 10 11 12 12 12 12
36 38 40 42 44 46 47 48 50 51 50 49 47 45 44 45 45 46 46 46 46 45 45 45 46 45 44 43 41 38 35 33 32 29 27 25 22 22 23 24 25 25 24 22 22 21 20 19 18 17 18 17 15 13 11 10 11 12 12 12 12 11 11
36 39 41 43 44 46 47 48 50 51 51 50 48 46 46 47 47 47 47 47 47 47 46 47 48 47 47 46 44 42 40 37 35 31 29 27 25 24 24 26 27 26 23 22 21 21 20 19 18 18 18 17 15 12 11 11 12 12 12 12 12 11 11
39 40 42 43 44 45 46 47 48 49 50 50 49 49 48 48 49 49 49 49 49 49 49 49 50 50 50 49 48 46 44 41 37 34 32 29 27 25 26 28 28 25 23 22 22 20 19 19 18 19 18 16 14 12 12 12 12 12 13 12 12 11 10
38 39 41 42 43 44 44 46 47 47 49 50 50 51 50 49 50 50 50 50 50 51 51 51 51 52 52 51 51 49 46 43 40 37 34 32 31 29 28 29 27 24 23 23 21 20 19 19 19 19 18 16 14 13 13 13 13 13 13 12 11 10 9
35 37 39 40 41 42 42 43 44 46 48 49 50 51 51 51 52 52 52 52 52 53 52 52 52 53 54 54 53 51 49 46 43 40 37 35 34 31 29 30 27 24 22 22 21 21 20 20 20 20 18 16 15 14 13 13 13 13 13 12 10 10 10
34 35 36 38 39 40 40 41 43 45 47 49 50 50 51 51 52 52 53 53 53 53 53 53 53 54 55 56 55 53 51 49 46 44 40 38 36 33 31 30 27 23 20 22 23 22 21 22 22 20 19 17 16 15 14 13 13 13 12 11 10 10 10
33 34 36 38 39 39 40 41 42 44 45 47 47 48 49 50 51 51 52 52 53 53 53 53 53 54 55 56 57 56 54 52 51 47 42 39 36 32 30 28 26 23 20 22 24 24 23 24 23 21 20 18 17 15 14 14 13 13 12 12 11 11 10
32 34 36 38 38 39 40 40 41 42 43 44 44 44 45 46 48 49 50 50 51 51 51 51 51 53 55 56 57 58 58 56 54 49 43 39 33 28 27 27 26 24 21 22 24 25 24 24 23 21 20 18 17 15 14 14 14 14 14 13 12 11 11
30 32 35 36 37 39 39 40 41 41 41 41 41 42 43 44 45 46 47 48 48 49 49 50 51 53 55 56 57 59 60 59 55 49 44 40 34 30 30 30 26 23 22 24 26 26 25 25 23 21 20 18 17 15 14 15 15 15 15 14 13 11 11
30 33 35 37 38 39 39 39 40 39 39 40 40 41 41 42 43 44 45 46 46 47 48 50 52 53 54 55 57 58 59 55 49 47 47 44 38 35 36 33 26 23 23 25 26 26 26 25 23 22 21 19 17 16 16 16 16 15 15 14 13 11 11
33 36 39 39 39 39 40 39 39 38 39 39 39 40 40 41 42 42 43 44 44 45 47 49 50 51 51 53 54 54 51 43 37 41 48 48 44 41 39 34 27 24 25 26 26 27 27 25 24 23 22 20 18 17 17 17 16 14 14 14 12 12 12
36 39 40 40 39 39 39 39 38 38 38 39 39 39 39 39 39 39 40 41 42 43 45 46 47 48 49 51 51 49 47 44 42 46 52 53 50 47 42 36 29 25 26 26 26 27 27 26 26 25 23 21 20 19 20 19 16 15 14 14 13 13 14
40 42 41 39 38 39 38 38 39 39 39 39 38 37 36 35 35 36 37 38 39 41 41 42 43 45 47 47 46 46 48 51 52 53 55 55 53 49 43 38 33 29 27 27 27 27 28 28 28 26 23 22 21 21 21 20 17 16 15 15 15 15 17
42 41 39 38 38 38 38 37 37 38 38 36 35 34 32 31 31 31 32 34 36 37 38 39 41 43 43 43 43 45 49 51 52 54 54 52 52 50 43 38 36 33 30 30 28 27 28 29 28 26 23 22 22 22 21 20 18 17 16 15 15 16 18
38 36 35 35 35 35 34 33 33 33 32 28 25 22 20 20 20 21 24 28 31 33 35 36 38 39 40 40 41 44 46 48 49 48 44 44 47 45 39 36 36 33 31 31 29 28 29 30 29 26 24 23 22 21 20 19 18 17 16 15 16 18 21
31 31 32 31 31 31 29 27 26 23 17 11 7 4 4 5 6 10 14 19 23 26 29 32 34 36 37 39 40 42 44 43 41 37 35 40 43 39 37 39 39 33 30 29 28 27 29 30 28 25 23 23 22 21 20 19 17 17 16 17 19 21 23
26 27 26 24 23 20 17 15 13 12 12 11 9 6 3 2 2 5 8 11 16 20 23 27 30 33 35 37 39 41 41 40 40 38 37 39 41 42 44 46 41 34 30 28 27 28 29 30 29 26 23 22 22 22 21 20 18 18 18 19 21 22 23
19 16 14 11 10 11 14 16 16 17 15 12 9 6 3 2 2 4 6 9 12 15 18 21 24 27 30 33 36 38 39 39 41 42 41 39 42 47 49 44 36 32 30 28 27 27 28 29 28 26 24 22 23 24 23 22 20 20 21 22 22 23 23
13 13 15 18 19 19 20 20 19 17 15 11 8 5 5 5 5 4 4 7 8 10 13 15 18 22 26 29 33 35 36 38 39 41 40 40 46 51 45 34 27 28 28 28 26 25 26 30 30 29 27 24 24 24 24 23 23 23 24 24 24 24 24
21 22 23 22 20 19 19 19 17 16 14 10 6 6 5 4 4 3 3 4 5 7 9 12 16 20 23 26 29 30 32 33 34 35 37 41 48 50 41 30 26 28 29 29 29 28 31 34 32 31 29 27 27 28 27 27 27 26 26 27 28 26 24
22 22 20 18 17 19 19 18 16 15 13 8 5 6 6 5 6 6 6 6 7 8 10 13 16 18 20 24 25 26 28 29 30 32 35 37 34 32 32 30 29 30 30 31 32 32 33 34 33 32 30 28 28 28 29 30 28 26 27 28 28 26 23
19 18 16 15 15 16 16 16 14 12 9 6 6 8 8 7 9 11 11 11 11 11 11 13 15 16 19 21 21 23 25 27 29 32 33 27 18 19 27 32 32 32 30 31 30 30 31 31 30 30 30 31 30 29 30 31 28 26 25 25 24 22 21
22 19 17 15 13 11 10 9 7 5 5 5 6 8 8 8 11 13 14 13 11 10 10 11 13 15 16 18 18 19 22 25 28 30 28 21 16 20 29 33 33 31 28 27 26 28 29 29 27 26 27 31 32 31 30 30 26 22 20 19 18 18 18
24 21 19 17 14 11 8 5 2 1 3 4 5 7 8 10 12 14 14 12 10 9 9 10 12 12 13 14 14 15 18 22 26 27 24 19 19 24 30 31 28 24 22 22 24 25 24 24 25 25 27 30 30 27 27 25 19 16 15 14 15 16 18
23 21 19 18 16 14 11 9 8 7 7 7 7 8 10 12 13 13 12 10 9 9 10 10 10 9 9 10 11 12 15 18 21 23 23 21 21 23 24 23 21 18 18 19 20 21 21 24 24 24 27 30 26 21 20 19 15 13 13 13 14 16 18
22 21 19 18 16 13 11 9 8 8 8 8 8 8 9 11 11 11 10 9 8 9 10 11 9 6 6 8 9 10 14 17 19 21 23 22 18 15 14 14 15 14 14 13 12 15 18 21 23 25 27 26 21 15 13 14 14 13 12 12 14 15 17
18 18 16 16 15 12 10 9 8 8 10 11 11 10 9 9 9 10 10 9 9 11 12 10 8 5 6 8 10 13 16 17 19 22 24 21 15 11 11 11 11 11 11 9 9 10 13 15 21 26 25 22 17 13 12 13 12 11 11 13 14 15 16
10 8 9 11 11 9 7 7 7 8 10 12 12 11 12 12 10 11 12 11 11 12 11 9 7 6 7 9 13 16 17 17 18 22 23 19 14 11 12 12 12 11 9 8 9 11 14 17 22 22 20 17 15 13 12 12 11 11 12 13 14 15 15
6 5 7 9 9 6 2 1 2 3 5 9 10 9 11 13 12 13 14 12 10 10 8 6 6 7 8 11 14 15 15 17 20 21 19 16 16 17 17 16 15 12 8 8 13 15 16 19 20 18 16 15 14 13 13 12 12 11 12 13 14 14 15
3 2 2 3 3 3 3 3 2 3 5 8 8 7 9 12 13 14 13 9 7 6 5 5 7 9 10 12 13 13 15 18 20 20 19 20 22 21 19 19 16 12 12 14 16 15 15 17 18 15 13 13 13 13 13 12 11 11 12 14 14 14 15
1 3 4 3 3 2 3 4 2 2 3 6 5 7 11 13 14 13 9 5 4 3 3 5 6 8 10 11 11 11 13 17 20 22 24 25 21 18 19 20 17 12 12 13 12 11 14 18 17 13 13 14 15 15 14 12 11 12 13 14 15 14 14
4 4 4 5 4 3 5 5 3 2 1 1 3 8 11 13 13 11 7 3 1 1 2 4 4 7 8 9 10 10 12 15 20 24 25 23 19 18 19 18 13 11 10 10 10 13 17 19 18 15 15 16 16 15 13 12 12 12 14 15 14 14 13
6 5 4 5 5 4 4 4 3 2 3 5 7 9 11 12 10 9 7 5 3 4 4 3 2 5 8 10 11 13 13 15 18 21 22 21 19 18 18 16 13 11 11 11 12 15 18 19 19 17 16 16 16 15 14 12 12 13 14 15 14 13 12

ECMWFFLT1_850_spd_009.txt.gz
Wind_Speed
31 35 36 39 46 47 47 48 45 43 42 41 41 39 39 39 38 38 36 36 37 36 35 35 35 35 35 36 35 35 34 33 33 32 30 29 28 26 23 21 21 21 20 19 18 17 15 14 14 14 12 10 11 11 11 10 9 9 8 8 8 9 10
31 33 34 39 46 49 49 49 47 46 44 42 41 40 40 40 39 39 38 37 38 37 37 36 36 36 37 37 37 36 36 35 34 33 31 31 29 26 24 22 21 20 19 19 17 16 15 15 15 13 12 10 10 11 11 10 10 10 9 9 10 10 11
32 34 37 42 48 51 51 50 49 49 47 45 43 42 41 40 39 39 39 39 39 38 38 38 37 38 38 38 38 38 38 37 36 34 33 32 30 27 24 22 21 20 19 18 17 16 16 16 15 14 13 11 11 12 11 10 11 11 11 11 11 12 12
36 38 42 46 49 52 53 52 51 50 49 47 45 42 41 40 39 39 39 39 39 39 39 39 39 39 39 39 40 40 40 39 37 36 35 33 30 27 25 24 22 21 20 19 18 17 17 17 16 16 14 12 12 13 12 12 12 13 12 12 12 12 13
35 39 41 44 47 50 52 53 53 52 50 48 46 44 42 40 39 39 40 40 40 40 40 40 41 41 41 41 42 42 41 39 38 37 36 34 30 28 27 25 23 22 21 20 19 19 19 18 18 17 16 14 14 14 14 14 14 15 14 13 13 13 13
31 37 40 43 45 48 51 53 53 53 51 49 47 45 42 41 41 40 40 41 42 42 42 42 42 43 43 43 44 43 41 40 39 38 37 35 32 30 28 25 23 21 21 20 20 20 20 20 19 19 17 16 16 16 16 16 16 16 15 14 14 14 14
32 38 40 41 43 47 49 50 51 51 50 49 47 45 43 43 43 41 41 42 43 44 44 44 44 44 44 44 44 43 42 41 41 40 39 37 34 32 29 25 22 20 19 20 21 21 21 21 21 20 19 18 17 18 18 18 17 17 16 14 14 14 14
33 37 39 40 43 45 47 48 49 49 49 48 48 48 47 45 44 43 43 43 43 44 45 45 45 45 45 46 45 44 44 43 43 42 40 39 36 33 30 27 23 21 21 22 22 21 22 22 22 20 20 19 19 19 20 20 19 18 16 15 14 13 13
30 34 36 39 41 43 44 46 46 46 47 47 47 48 48 46 45 44 44 44 44 45 46 45 45 45 46 46 45 45 45 45 44 43 41 39 37 35 33 29 25 24 24 23 22 22 23 24 23 22 21 20 20 21 21 22 21 18 16 15 15 14 13
27 31 34 37 40 41 41 43 44 44 45 45 45 46 47 47 47 45 45 45 45 46 45 45 45 46 46 46 46 45 46 46 45 42 39 38 38 38 35 31 27 26 25 23 21 22 25 26 24 23 22 21 22 22 23 23 21 17 16 16 15 15 14
25 28 32 36 38 39 40 41 41 42 42 43 43 44 45 47 48 47 47 46 46 46 46 45 45 46 47 46 46 47 47 47 44 41 40 41 42 42 37 32 30 27 24 23 22 22 25 27 26 24 23 23 23 24 24 23 20 17 16 16 16 15 14
24 27 32 35 37 38 39 39 39 39 40 40 41 41 42 44 46 47 48 47 47 46 46 46 46 47 48 46 47 48 47 45 45 44 45 46 46 44 39 34 32 28 25 24 23 23 26 28 27 24 24 24 24 24 24 22 19 17 16 16 16 16 16
23 28 32 34 36 36 36 37 38 37 38 38 38 39 38 40 42 45 46 46 47 46 46 47 47 48 49 48 48 48 47 48 51 51 50 51 51 48 43 39 35 32 29 28 27 27 27 28 27 25 24 25 25 25 24 21 19 18 17 16 17 17 17
21 26 30 32 35 35 35 37 37 37 37 36 36 36 36 37 39 41 42 43 44 46 46 47 48 48 48 48 46 47 49 53 56 54 54 55 54 50 47 42 38 35 33 31 31 31 30 28 26 25 24 25 26 25 23 21 20 19 18 17 18 18 18
23 26 30 34 36 36 36 36 36 36 35 34 35 35 34 36 38 38 39 39 40 43 44 46 47 47 46 44 44 47 50 53 54 53 52 53 52 49 47 42 38 37 37 36 34 33 33 29 25 23 25 26 26 25 23 22 22 20 19 18 18 19 19
23 27 33 36 37 37 37 35 35 34 34 33 33 32 32 33 34 34 34 35 38 40 42 43 45 43 41 41 43 45 47 48 49 49 48 48 50 50 47 42 38 39 41 41 38 36 37 32 24 22 25 26 26 26 24 23 22 20 19 18 18 19 19
25 29 35 38 38 38 36 34 34 34 33 32 30 29 29 29 29 31 33 35 37 38 37 38 39 38 38 39 41 42 43 44 46 47 47 45 46 48 48 46 45 45 44 44 43 41 39 34 26 23 24 25 26 26 24 24 23 21 20 19 18 18 19
30 32 36 37 39 39 36 34 34 33 31 30 29 28 28 28 30 32 33 33 31 30 31 32 33 33 34 36 39 40 40 42 43 44 42 37 36 41 45 49 51 52 50 48 46 45 42 36 28 23 22 23 25 26 25 25 24 22 21 20 19 19 20
34 35 37 40 41 40 37 35 33 31 30 28 27 28 29 29 30 28 24 22 21 21 24 25 26 28 30 32 35 36 37 39 38 38 38 34 33 37 44 49 52 53 54 51 46 43 39 35 30 24 20 23 26 27 27 27 25 24 23 22 21 21 21
32 32 34 37 38 38 37 35 33 31 29 28 29 29 27 23 19 15 13 14 14 16 18 19 20 22 24 27 30 32 34 35 36 36 37 38 38 38 41 47 51 53 54 51 45 39 33 31 32 26 20 24 29 28 28 28 27 26 25 23 22 22 23
28 26 27 28 31 35 36 35 34 32 31 30 28 23 17 12 10 10 10 11 11 11 12 13 14 15 17 21 24 27 30 32 34 36 36 37 39 37 37 42 49 54 53 47 42 38 32 29 30 27 23 28 31 28 29 30 29 27 26 24 23 22 23
26 27 26 23 23 30 34 34 32 30 27 23 18 13 12 13 13 12 11 10 8 7 6 6 7 9 11 15 19 21 25 28 31 33 34 35 37 37 36 39 44 51 51 42 36 37 32 27 28 29 28 30 30 30 32 32 29 28 26 24 23 23 24
17 19 21 19 18 22 25 24 21 18 16 15 16 18 18 17 15 13 11 8 6 5 4 4 4 5 6 9 13 16 19 23 26 29 31 33 34 34 35 38 43 50 50 42 38 40 36 29 30 33 31 30 32 34 33 30 28 27 26 26 26 25 25
12 11 14 15 15 16 17 15 15 17 20 22 22 21 18 16 14 11 9 7 6 5 4 3 2 1 3 6 9 12 15 19 22 25 27 29 31 32 33 36 41 45 46 44 42 41 37 33 36 38 35 33 35 33 31 29 28 28 29 30 29 27 27
12 11 12 13 15 18 20 21 25 27 26 24 21 18 16 14 12 10 9 9 8 6 5 3 2 1 2 5 7 10 13 16 19 21 24 26 28 28 30 33 36 36 38 40 38 36 36 37 39 40 35 32 31 31 30 29 28 29 31 31 28 27 28
14 15 16 19 22 25 28 29 30 28 25 22 19 17 15 13 12 11 11 10 9 8 6 4 3 2 2 4 6 9 11 13 16 19 23 24 25 26 28 32 33 33 34 34 33 32 34 36 36 34 30 28 29 30 29 28 28 29 29 27 26 27 28
21 21 21 22 24 27 29 29 27 24 21 19 17 15 14 12 10 10 10 10 10 9 6 3 2 1 2 4 6 7 8 10 14 18 20 21 21 24 26 27 29 30 32 33 32 31 33 33 31 28 26 25 26 27 26 27 29 28 25 24 25 26 28
31 30 27 25 24 24 25 24 22 19 16 13 11 12 11 9 7 6 7 9 8 5 3 1 1 1 3 4 5 5 5 8 12 14 16 17 19 21 21 21 24 29 33 33 31 30 31 31 27 23 23 22 23 23 23 24 25 24 22 21 22 23 25
34 34 32 29 26 23 22 21 19 16 15 12 10 9 8 6 4 2 2 4 4 3 3 2 1 3 4 4 4 3 4 7 9 10 11 14 17 19 19 20 25 30 30 29 30 30 29 24 20 19 20 20 20 21 22 21 19 19 19 19 19 19 19
32 31 30 29 27 24 22 21 20 17 16 14 11 9 7 6 4 3 2 1 3 4 2 1 3 4 4 4 3 3 4 5 6 7 9 11 14 18 20 24 29 31 29 27 28 27 23 18 18 19 20 18 17 18 18 17 16 17 19 18 16 15 16
30 29 27 26 24 21 20 20 18 16 14 12 11 11 11 9 7 6 5 3 2 2 1 2 3 3 3 3 3 3 4 5 6 7 8 10 14 17 20 24 26 26 26 26 24 21 18 17 18 18 17 15 14 14 15 16 16 17 17 15 14 14 14
25 24 22 21 20 18 16 16 15 13 12 11 11 10 9 9 7 6 5 2 2 2 2 3 3 2 1 3 3 3 5 7 8 8 8 11 14 15 19 23 23 21 23 23 20 17 16 15 14 14 13 13 14 14 15 15 15 15 14 13 14 14 14
18 16 14 14 14 12 10 9 8 8 9 8 6 3 4 5 4 5 6 5 6 6 4 2 2 1 3 4 4 4 6 8 9 10 11 13 14 14 16 21 22 21 21 20 18 17 16 14 14 14 14 14 15 14 12 12 14 15 14 13 13 13 13
13 11 9 8 7 7 7 6 5 6 6 4 3 7 8 8 8 10 10 9 10 9 6 4 3 4 5 5 4 4 7 9 10 12 14 16 16 15 15 17 20 20 20 20 19 17 16 14 14 14 14 13 12 11 11 12 14 15 14 13 13 12 13
10 9 7 6 5 6 7 7 6 5 4 2 4 7 8 8 8 10 11 11 10 8 5 6 6 6 5 5 4 5 7 9 11 14 16 18 19 17 13 14 18 19 19 19 19 17 15 12 11 11 10 9 8 9 11 12 14 14 13 12 12 12 13
6 5 5 5 6 6 6 6 5 5 4 3 3 4 5 6 8 10 10 9 8 7 8 8 7 6 5 5 5 5 6 8 11 15 17 19 20 17 14 14 17 20 20 20 18 16 14 10 9 9 8 8 9 10 11 13 14 13 12 12 12 13 14
4 3 3 2 3 4 3 4 5 6 6 6 6 5 5 6 8 9 9 9 10 10 10 9 7 7 7 7 6 6 6 8 10 13 17 19 19 17 15 16 20 22 20 17 13 12 10 9 9 10 10 11 11 12 13 14 14 13 13 13 13 14 15
6 5 4 2 1 1 1 2 4 6 7 7 7 6 5 4 5 7 10 11 12 12 12 10 8 8 9 10 9 7 8 9 9 11 15 18 19 17 15 17 22 22 16 11 9 8 9 10 11 12 12 13 13 13 14 14 14 14 14 13 13 14 15

ECMWFFLT1_850_spd_012.txt.gz
Wind_Speed
26 29 31 31 31 32 33 35 35 36 38 40 42 41 40 39 38 39 39 38 37 36 34 34 33 33 32 32 32 33 34 33 26 22 24 25 26 26 24 22 20 17 15 14 13 12 13 16 16 14 11 10 10 12 12 10 10 10 11 11 11 9 8
25 27 30 31 32 33 35 37 40 40 40 41 42 42 42 41 41 40 40 39 38 37 36 35 35 35 34 33 34 34 35 34 28 23 23 23 25 27 26 23 21 18 17 17 15 14 16 18 17 15 13 11 11 13 13 11 10 11 11 11 10 10 9
25 26 29 31 33 34 37 40 43 43 43 42 43 43 43 42 42 41 41 40 39 38 37 37 36 36 35 35 35 36 36 36 30 24 23 23 24 25 25 24 21 19 18 18 18 18 18 18 17 15 14 13 13 13 13 12 12 11 12 12 11 10 10
25 27 28 30 32 33 38 44 46 45 45 44 44 44 43 43 41 41 41 40 40 39 39 38 38 38 37 37 37 37 37 36 31 28 27 26 25 26 26 26 25 22 20 19 19 19 18 18 17 16 15 14 14 14 13 13 13 12 11 12 11 11 10
24 25 26 28 30 31 35 41 45 46 46 44 44 44 43 42 41 40 40 40 40 40 39 39 39 39 38 38 38 38 38 35 30 31 33 29 28 29 28 29 28 25 23 21 20 19 18 18 17 17 17 16 15 15 14 14 14 13 12 12 11 11 10
21 24 26 27 29 31 33 37 43 45 46 45 45 45 43 42 41 41 40 39 39 39 39 39 39 40 40 40 39 39 39 37 33 34 34 30 31 33 32 31 29 27 25 22 20 18 18 18 18 18 17 16 16 15 15 15 14 13 13 13 12 11 10
19 23 26 27 28 31 33 36 38 39 42 44 44 45 44 43 43 42 40 40 40 40 40 40 40 41 41 41 41 40 40 40 38 36 35 33 33 34 33 33 31 28 26 24 21 20 20 19 18 18 19 18 17 16 16 16 16 15 14 14 14 13 11
18 22 25 27 28 29 30 32 32 32 35 39 42 44 45 44 42 41 41 40 40 40 40 40 41 42 42 42 42 41 40 39 39 38 38 37 35 35 35 35 32 30 28 25 23 22 21 20 18 19 20 18 17 17 17 17 17 16 15 15 15 13 12
17 21 24 25 26 27 27 27 28 30 33 37 40 43 45 44 42 41 41 40 39 40 41 40 41 42 43 43 42 41 40 40 40 40 40 40 38 36 37 36 33 32 29 24 23 23 22 21 20 20 20 19 17 18 19 18 17 17 17 16 15 15 13
16 18 21 22 23 23 23 24 26 30 33 36 38 41 44 44 42 40 39 39 37 37 39 40 40 40 42 43 42 42 41 42 43 42 41 42 40 38 38 36 33 31 27 23 23 24 22 20 21 22 22 20 19 20 19 18 18 18 18 17 17 17 16
14 16 18 20 21 22 22 23 27 31 35 37 38 40 42 43 44 41 39 39 36 34 35 37 36 37 40 42 41 41 43 44 44 43 43 43 43 40 34 28 27 27 26 24 25 26 24 22 24 25 24 22 22 22 20 19 19 20 19 18 19 19 18
10 13 16 18 20 22 23 24 27 31 35 37 39 39 40 42 44 42 40 39 36 32 31 32 33 33 35 39 42 42 43 44 44 44 44 43 38 32 26 24 27 30 30 30 31 31 29 28 28 29 28 25 23 23 21 20 20 20 20 20 20 20 17
10 11 14 16 19 21 23 25 28 31 34 35 37 37 38 40 42 41 41 41 36 31 29 29 30 30 31 35 39 41 43 44 44 44 42 40 37 34 32 33 34 34 34 36 37 36 35 34 33 32 29 26 25 24 21 20 21 19 19 20 21 20 17
13 12 13 16 20 23 25 28 29 31 33 34 35 36 36 37 38 39 41 42 37 31 28 27 28 29 32 34 35 39 42 40 39 39 36 37 41 39 34 35 37 38 41 43 44 43 42 42 40 36 31 28 27 25 23 23 22 19 18 19 20 19 18
14 14 15 18 22 26 28 30 31 32 33 33 33 35 35 35 36 37 37 38 36 32 27 26 29 32 34 35 36 38 35 30 31 33 33 36 39 34 29 35 43 47 49 50 49 46 43 43 42 36 31 30 29 27 26 26 23 18 18 19 19 19 18
16 16 18 20 23 27 30 31 31 32 32 32 32 34 35 35 35 36 36 35 35 33 29 27 30 34 35 35 37 34 26 26 32 34 33 35 36 33 32 37 44 48 52 53 51 47 43 43 43 39 35 33 32 32 30 28 24 21 20 19 18 18 18
17 17 18 21 23 26 28 29 30 32 32 31 32 33 34 34 33 33 32 31 31 31 30 28 29 33 34 33 34 29 22 25 32 32 31 32 32 32 32 33 38 44 50 52 50 48 46 44 44 42 39 37 36 36 34 31 27 26 25 23 20 20 19
18 20 21 23 24 25 29 31 32 33 32 30 31 33 33 32 30 29 29 28 27 26 25 26 26 29 30 29 30 26 19 21 27 27 28 28 24 23 24 26 30 37 45 51 50 48 47 46 44 43 42 41 40 38 35 32 29 28 28 28 25 23 21
19 22 24 24 25 28 32 34 35 34 33 30 30 31 31 31 30 29 29 28 26 24 22 23 24 26 26 25 25 21 17 19 25 25 25 23 18 17 19 21 24 29 38 48 51 50 48 46 46 45 42 41 41 38 35 32 29 28 29 30 28 25 25
15 16 17 19 23 27 30 31 32 32 32 30 28 28 29 29 29 29 27 26 25 23 22 21 21 22 21 19 19 17 15 16 20 20 21 20 18 18 19 20 22 25 32 43 50 51 50 47 47 46 42 40 39 35 32 30 27 27 28 28 27 28 28
14 12 13 14 18 23 27 29 29 29 28 27 26 27 28 28 28 27 24 22 22 21 21 21 20 19 18 16 15 15 14 14 14 16 19 19 18 20 20 20 21 23 29 38 44 49 52 50 48 46 42 39 35 33 32 28 25 27 28 26 26 29 29
15 14 14 14 16 20 24 25 26 28 27 24 23 25 27 26 24 21 18 19 20 19 19 19 18 18 17 15 15 14 12 11 11 13 16 18 19 21 21 20 21 23 29 34 37 44 50 50 48 46 41 36 34 33 32 26 22 27 30 27 28 29 28
13 14 15 16 18 21 22 20 22 26 27 25 23 23 22 20 19 19 19 19 20 19 18 18 18 18 17 16 15 13 10 9 10 12 14 16 18 20 21 21 22 25 30 33 35 40 45 44 44 44 39 37 35 32 29 24 23 28 31 29 31 30 26
13 12 13 15 16 18 19 19 21 25 26 25 22 20 19 19 20 22 21 20 20 20 20 19 18 17 16 15 14 11 9 9 9 10 12 14 16 17 18 20 21 24 30 35 38 40 41 40 39 38 37 37 35 29 25 24 24 28 30 30 33 32 27
13 12 13 15 15 16 18 19 21 22 22 21 21 21 22 22 23 24 24 22 20 20 20 19 17 16 15 14 12 10 8 8 8 10 11 12 14 14 15 18 20 21 25 32 37 39 38 37 37 36 35 34 31 26 24 24 26 29 30 31 33 32 28
13 13 14 16 17 19 21 23 23 23 24 25 26 26 25 25 26 26 25 22 19 18 18 18 17 16 15 13 11 8 7 7 8 9 9 10 13 13 13 16 19 19 21 26 33 35 33 31 31 32 31 29 26 24 23 23 26 29 29 30 31 28 26
13 14 15 18 20 22 24 24 25 26 29 30 30 29 28 28 27 26 25 23 21 18 16 16 15 14 12 10 9 8 7 7 7 8 9 10 12 12 12 13 14 16 19 23 27 29 28 26 26 27 27 26 24 23 24 24 25 25 26 27 25 23 24
17 17 18 19 19 21 23 26 28 31 33 33 32 30 28 27 26 25 23 21 18 16 15 15 14 12 10 9 8 7 7 7 7 7 9 9 9 9 10 11 11 12 15 18 19 20 22 22 22 23 23 23 24 26 26 25 22 21 21 22 21 22 25
23 24 23 22 22 23 26 28 29 30 31 30 28 26 24 22 21 20 18 16 15 15 15 14 12 10 8 7 7 6 6 6 6 7 7 6 6 7 7 8 8 9 12 14 16 16 17 18 18 18 19 20 23 25 25 21 18 18 19 20 21 23 23
26 27 27 27 28 28 29 30 30 29 28 27 25 22 20 18 17 15 13 13 15 16 15 13 10 8 6 6 6 7 6 5 5 6 5 4 5 5 5 6 7 9 12 15 16 16 15 16 16 17 18 19 20 20 19 17 16 18 20 19 18 18 17
31 32 33 33 32 30 29 30 30 29 27 25 22 19 16 15 15 14 12 13 14 15 14 12 9 8 8 9 9 9 8 6 6 6 4 3 4 4 6 8 9 10 12 15 16 16 16 17 17 18 19 18 16 15 16 17 19 20 19 16 15 15 14
34 35 36 35 33 30 28 27 26 25 23 21 18 16 15 14 14 15 15 15 14 13 12 11 11 12 12 13 12 10 8 7 7 7 6 5 6 7 8 9 10 10 12 14 15 17 17 17 16 17 18 17 15 16 17 18 18 17 15 15 16 15 14
31 31 31 30 30 28 25 23 22 20 19 19 18 17 15 15 13 13 12 11 10 12 14 14 15 15 14 13 11 10 9 8 9 9 8 7 8 9 8 8 10 11 13 15 17 18 17 16 15 16 18 18 18 17 16 16 15 14 15 16 15 14 13
26 25 24 23 23 23 21 20 19 18 17 18 17 14 13 12 11 10 10 9 11 15 16 15 15 14 13 12 11 10 10 9 9 9 9 9 9 10 9 9 10 11 13 16 18 17 16 16 17 17 18 17 16 15 14 14 13 13 15 15 13 13 13
20 20 20 18 17 17 17 17 18 17 14 12 11 10 10 9 9 10 10 10 11 13 13 14 14 13 12 12 11 11 10 10 9 9 10 11 13 15 15 14 15 15 14 16 18 17 15 14 15 16 15 12 10 11 11 11 12 13 13 14 14 13 12
16 16 16 16 14 13 13 14 15 13 10 9 9 9 9 7 8 9 8 9 11 12 13 14 15 14 13 12 12 12 10 10 10 11 11 11 13 16 16 16 17 17 16 15 16 17 16 14 13 14 12 9 8 11 11 11 13 13 13 14 14 14 13
14 14 13 12 12 11 11 11 11 10 10 10 10 10 9 7 7 8 8 10 12 14 14 15 16 15 13 13 12 12 11 11 11 12 11 10 11 14 14 13 13 15 15 15 16 17 16 14 13 13 13 12 12 13 13 13 12 12 14 15 15 14 15
13 12 11 9 8 8 8 8 8 8 9 9 8 8 7 6 7 8 9 12 15 17 16 15 15 14 14 13 11 11 11 11 11 11 12 11 11 13 14 12 11 13 16 17 17 16 14 13 13 14 15 16 16 14 13 13 13 14 16 16 15 15 16

ECMWFFLT1_850_spd_015.txt.gz
Wind_Speed
20 22 27 31 33 34 36 38 37 37 38 38 38 38 37 37 36 34 33 34 34 35 38 38 37 35 33 31 29 29 28 27 27 26 25 24 23 22 21 21 19 18 16 14 12 11 12 11 11 11 12 10 8 8 10 11 11 10 10 11 11 10 9
20 22 26 31 34 35 36 37 38 38 38 38 38 38 38 38 38 37 35 35 36 37 38 38 37 37 35 32 30 30 30 29 27 26 26 26 26 24 23 22 20 18 16 15 13 12 12 11 11 12 12 11 10 10 11 11 11 10 10 10 11 11 10
22 24 28 33 35 35 36 37 39 39 39 38 39 39 40 40 40 41 38 37 38 39 39 39 38 37 35 33 31 31 31 30 29 28 28 27 27 26 24 23 21 18 17 17 15 14 13 12 12 12 13 13 13 12 11 11 11 11 10 11 11 11 10
22 25 29 33 35 33 34 37 38 40 40 39 40 40 41 42 42 42 42 39 39 40 41 40 40 39 37 35 34 33 32 32 31 30 30 28 26 25 26 25 23 21 18 17 17 16 15 13 12 12 14 14 14 13 12 12 12 12 11 11 12 11 11
17 21 26 30 32 32 32 35 37 39 39 38 39 39 40 41 41 41 42 41 40 40 41 40 39 38 38 37 35 34 34 32 32 32 32 31 28 25 25 25 24 22 19 18 18 18 17 16 13 12 14 15 13 12 12 12 13 13 12 12 12 12 12
18 21 25 27 28 32 34 35 38 39 39 38 38 38 39 39 39 39 40 41 40 38 39 40 39 37 38 38 36 35 34 33 33 34 33 32 30 26 24 23 23 22 20 20 21 20 20 18 16 15 16 16 15 14 13 14 14 14 13 12 11 11 13
20 21 24 25 26 30 34 35 37 38 39 38 37 38 38 38 38 38 37 39 40 38 37 39 39 38 38 38 37 37 36 35 34 35 34 32 30 27 24 21 21 21 21 23 23 21 21 20 19 20 20 19 19 17 17 17 16 15 15 14 13 12 13
21 21 24 25 25 27 30 33 35 36 37 37 37 38 39 38 38 37 37 37 37 37 36 36 37 38 38 39 39 39 39 38 36 35 34 33 30 27 23 21 21 21 23 25 24 23 24 25 25 27 26 24 23 21 21 22 20 19 17 17 16 14 15
20 25 24 24 23 24 27 30 32 33 36 37 38 39 39 39 38 38 37 36 35 37 37 35 35 36 38 40 41 41 40 39 37 36 35 33 29 25 23 23 24 24 24 25 25 26 29 32 32 32 31 29 27 25 24 24 23 21 19 19 18 16 17
13 20 20 22 22 22 25 28 29 32 35 37 39 38 38 39 39 37 37 36 35 36 37 35 33 33 35 40 43 42 41 40 38 37 34 30 28 27 27 27 28 28 26 26 29 32 35 37 36 35 34 33 31 28 26 25 25 22 20 20 21 19 19
8 11 15 19 20 21 24 26 29 32 35 38 39 38 38 39 39 37 36 36 35 34 34 35 33 32 33 37 41 42 42 40 38 36 33 30 31 34 33 31 31 32 31 33 37 40 41 40 39 37 34 33 31 28 26 26 26 23 20 22 23 21 20
10 13 16 19 20 21 23 25 28 31 34 37 38 36 37 38 39 38 37 36 35 33 32 33 33 32 32 33 35 38 40 41 39 36 35 35 38 37 35 35 35 36 37 39 41 44 43 41 40 39 36 34 32 30 27 28 27 24 21 22 23 23 22
12 15 16 18 20 21 23 25 27 30 32 34 36 35 35 36 37 39 38 37 35 33 31 32 32 33 33 32 31 32 36 39 39 38 38 40 41 40 39 40 38 38 42 43 42 43 43 42 43 42 40 38 36 34 31 29 29 26 23 23 23 23 22
15 16 18 20 21 22 24 25 26 29 31 32 33 33 33 33 34 37 38 37 35 33 31 30 31 33 33 31 30 30 32 34 36 39 40 40 41 41 43 43 40 42 47 47 44 43 43 45 46 45 42 40 39 38 34 31 31 29 25 24 25 24 22
17 17 18 20 22 23 24 26 26 29 31 31 32 33 32 32 33 33 34 35 35 34 32 30 31 32 32 31 30 29 30 30 32 35 37 39 41 42 43 42 43 46 49 47 45 46 46 46 47 45 42 40 40 39 36 34 33 31 28 28 28 27 22
19 18 16 16 19 23 25 26 28 29 30 31 32 33 32 32 32 32 32 33 34 34 33 31 31 32 32 31 30 28 29 31 30 30 31 35 39 40 40 42 44 45 46 45 45 45 45 46 46 45 43 42 42 40 38 37 36 33 30 29 30 29 25
19 17 16 16 17 21 24 26 28 29 32 33 34 34 33 32 32 32 31 31 32 33 32 31 30 31 31 30 29 29 29 29 29 29 29 32 35 33 31 33 36 37 39 41 43 44 45 45 45 43 41 40 42 42 41 39 37 35 32 30 30 29 26
20 18 18 18 17 21 24 26 29 32 34 34 34 34 34 33 32 31 30 30 30 31 32 31 30 31 32 31 31 31 29 28 30 31 31 31 31 28 23 22 26 30 32 36 39 41 43 44 44 43 39 33 33 38 40 38 38 37 32 31 31 29 26
23 24 22 17 15 19 24 27 30 34 34 34 34 35 34 32 31 30 29 28 28 29 30 30 29 31 33 32 32 32 30 30 32 31 30 30 26 21 20 20 23 26 27 30 33 35 38 41 39 38 35 30 28 32 32 34 38 38 32 32 33 30 27
26 28 23 15 14 18 21 25 27 29 30 31 31 31 31 29 29 29 27 26 26 27 29 30 29 30 32 31 30 30 29 29 31 30 28 25 18 16 18 20 21 23 23 25 28 29 32 32 28 26 29 29 30 31 30 31 36 37 35 34 34 30 28
27 28 23 18 19 23 23 24 25 25 28 29 28 28 29 29 28 28 27 25 26 26 27 29 27 27 28 27 26 26 24 23 26 27 23 17 15 15 17 18 18 18 18 18 20 20 22 22 21 23 28 29 30 31 31 33 33 33 33 34 32 29 28
28 25 20 19 22 25 26 25 24 25 27 28 27 28 29 29 29 28 27 26 26 25 26 27 27 25 25 24 23 25 24 20 20 21 18 16 17 18 18 17 16 16 15 15 15 17 19 19 18 21 26 28 30 31 33 36 35 30 29 33 31 28 27
31 27 23 22 22 24 26 24 22 24 26 27 28 29 28 28 28 27 27 27 27 27 26 26 27 25 24 24 24 25 24 20 18 17 17 17 20 21 20 18 16 15 15 15 15 17 20 21 18 18 23 28 31 32 33 36 34 30 29 32 32 28 27
30 27 23 21 19 21 23 23 22 24 26 27 28 28 28 28 28 28 28 28 28 28 26 26 26 26 25 25 24 23 22 19 17 16 16 17 19 19 19 18 16 16 16 17 18 18 20 22 22 21 23 26 29 30 31 31 31 29 28 28 27 26 25
27 24 19 18 18 21 22 21 22 25 26 27 28 28 28 29 28 28 28 27 27 27 26 26 26 26 25 24 24 23 20 19 17 15 15 16 15 13 13 13 13 13 15 17 19 19 19 21 23 24 24 23 24 26 28 28 29 27 26 24 23 22 23
21 21 19 18 18 20 20 21 23 26 26 28 31 31 30 29 29 29 29 27 26 25 25 25 25 25 25 24 23 22 19 18 18 17 15 15 14 11 11 11 11 12 13 15 17 18 18 18 20 23 22 21 22 23 24 26 26 25 24 22 21 22 24
14 15 16 16 18 19 20 22 24 24 25 27 30 30 30 30 30 30 29 27 25 25 25 25 25 25 25 24 22 20 18 17 18 17 15 14 13 13 13 13 14 15 15 16 17 18 16 14 17 21 21 20 20 20 21 23 24 24 23 22 22 24 25
11 12 13 16 19 21 21 21 22 22 23 24 26 26 28 31 33 32 30 27 26 26 25 27 28 27 26 25 21 19 18 17 16 16 15 13 13 15 16 16 17 17 17 17 18 17 13 12 15 17 17 17 17 18 19 22 22 22 21 21 21 23 22
10 12 15 18 20 19 20 21 22 23 23 25 26 26 27 32 35 34 31 29 28 27 28 29 30 29 27 25 22 19 19 16 14 13 13 12 14 16 18 19 19 18 18 17 16 13 10 10 11 11 12 13 13 16 19 21 22 21 19 17 16 17 18
11 12 13 16 18 18 20 23 24 24 24 25 26 27 29 34 38 36 33 31 30 30 30 30 30 27 24 23 22 20 18 16 14 13 12 13 15 17 19 19 17 15 14 13 12 10 8 8 9 10 10 11 12 14 16 17 17 18 16 13 13 15 16
12 12 13 15 18 20 23 25 26 26 26 26 27 29 32 36 38 36 33 32 31 30 30 29 27 24 22 21 20 18 16 15 15 15 13 12 14 14 14 14 12 10 10 11 10 9 9 9 10 10 11 12 13 14 14 13 13 14 14 14 14 16 17
14 15 16 18 20 22 24 26 28 29 30 29 29 30 31 32 31 29 29 29 28 27 27 26 24 23 22 21 19 16 14 14 14 13 12 12 11 10 10 10 10 9 10 10 10 10 10 10 10 10 11 12 13 13 13 12 13 14 15 15 16 17 18
19 19 19 20 22 24 27 29 30 31 31 30 29 28 28 27 25 23 25 26 26 25 24 23 23 23 22 20 18 15 13 13 12 11 11 11 10 9 9 10 10 10 12 12 12 11 11 12 12 12 12 13 13 12 11 12 13 15 16 17 18 17 17
21 20 21 21 22 23 26 27 28 28 28 27 26 25 24 23 22 22 25 26 25 24 23 22 21 21 20 18 16 15 14 14 13 12 12 12 12 12 12 12 10 10 11 13 13 12 13 13 13 13 13 13 13 12 12 12 13 14 14 15 16 16 17
20 21 21 21 21 23 24 25 26 27 27 25 23 23 24 24 24 24 25 24 23 22 21 21 20 19 18 17 16 16 16 15 14 13 12 14 17 17 16 16 15 13 13 15 16 16 15 14 12 12 12 12 13 14 13 13 13 12 12 14 16 16 16
19 20 20 20 21 23 24 25 25 26 26 24 22 22 22 22 21 20 19 18 19 20 20 20 19 16 15 15 16 16 16 16 15 14 13 13 16 17 17 18 18 17 15 16 18 18 16 14 13 12 12 12 13 13 12 12 12 12 13 14 14 13 12
19 19 18 18 19 20 20 20 19 19 20 20 18 18 18 17 17 16 15 15 16 18 19 19 18 16 16 16 17 17 17 17 16 16 15 13 13 15 16 16 18 17 14 14 16 17 15 13 13 12 11 11 12 12 11 11 11 11 11 11 10 11 12
21 20 19 18 19 19 18 17 16 15 16 15 14 14 14 15 15 13 12 13 14 15 16 16 16 16 16 16 17 18 18 17 16 16 16 14 14 15 15 15 17 18 15 12 14 16 15 13 11 10 10 11 11 10 11 11 11 10 9 9 10 12 14

ECMWFFLT1_850_spd_021.txt.gz
Wind_Speed
39 39 38 39 41 41 42 46 48 47 48 50 50 49 48 47 46 45 46 46 45 44 43 42 42 42 42 41 39 37 35 34 33 32 31 29 28 27 26 25 25 26 24 23 22 22 21 20 20 19 16 15 16 17 17 15 14 18 21 20 17 15 14
38 39 39 38 40 41 41 43 46 48 48 49 50 49 49 48 47 47 46 46 46 44 43 42 42 42 43 42 41 39 36 34 34 33 32 31 29 28 28 27 26 26 24 22 21 21 22 21 20 19 17 16 16 17 17 17 15 16 20 22 20 18 15
37 38 39 40 40 42 41 40 43 48 49 49 50 49 49 49 48 48 47 46 45 44 43 43 43 42 42 42 42 40 38 36 34 34 33 32 31 29 29 29 28 26 25 23 22 23 23 22 21 20 20 18 18 18 17 17 17 17 19 21 22 21 18
39 38 40 42 43 44 43 41 41 46 48 49 49 50 49 49 48 47 47 46 45 44 44 44 43 43 43 42 43 42 40 38 36 34 34 33 32 31 31 31 29 28 27 25 24 24 24 23 23 22 21 20 19 19 18 18 18 18 18 19 21 24 23
42 41 41 42 44 45 45 44 44 45 47 48 48 48 48 48 48 48 47 46 45 45 45 44 44 44 43 43 43 43 42 39 37 35 34 34 33 32 33 33 31 30 29 28 27 27 26 25 25 24 23 22 21 20 20 19 19 19 18 17 19 23 25
41 43 43 44 45 45 46 46 47 48 48 48 47 47 47 47 48 48 47 46 45 44 44 44 44 44 44 44 43 43 42 40 38 36 36 35 34 34 34 34 33 32 31 30 29 29 28 26 26 25 25 24 23 23 22 22 21 20 19 18 18 20 22
41 43 45 47 46 47 47 47 48 49 49 48 46 46 46 47 48 48 48 47 46 45 44 45 45 45 45 44 43 43 43 42 40 38 37 36 35 35 35 34 34 33 32 32 31 31 29 28 27 26 26 26 25 24 24 24 24 22 21 19 18 19 20
46 47 48 49 48 48 47 46 46 48 49 47 45 46 46 47 49 49 49 48 47 46 46 46 47 46 46 45 44 44 44 43 41 39 38 38 37 37 36 36 35 34 34 34 34 33 31 30 29 28 28 27 27 26 27 27 27 25 24 22 21 21 21
47 49 50 50 49 48 46 45 45 45 47 47 46 46 46 47 49 50 50 49 48 48 47 47 47 47 46 45 45 45 44 44 43 41 40 39 39 38 38 37 36 35 36 36 36 35 33 32 31 30 29 29 29 29 30 30 30 29 28 26 24 23 22
42 44 46 47 46 45 44 43 42 42 44 47 47 46 46 47 48 49 49 49 49 49 48 47 47 47 46 46 45 45 45 45 44 43 42 41 40 40 39 38 38 37 37 38 38 37 36 34 33 31 31 31 31 32 33 33 33 32 32 30 28 25 23
43 46 45 44 42 41 40 38 40 42 43 45 47 47 47 47 47 47 48 49 48 48 48 47 46 46 46 47 46 45 46 46 46 45 44 43 42 41 40 40 39 39 38 39 40 40 38 36 35 34 34 34 34 34 35 36 36 35 35 33 31 27 25
45 49 44 40 38 37 37 37 41 44 44 44 46 47 47 47 46 46 47 47 47 47 47 47 46 46 46 47 47 47 47 48 47 47 46 45 43 42 42 41 41 41 40 40 40 41 40 39 37 37 37 36 36 36 36 37 38 38 37 35 33 29 26
41 47 41 40 40 38 39 41 43 43 43 44 45 46 47 46 46 46 46 46 46 46 45 46 46 46 46 47 48 48 49 49 49 48 47 46 44 43 43 43 42 42 42 41 41 41 41 41 40 39 38 37 37 37 38 38 39 39 38 37 35 32 28
36 42 40 42 43 43 44 43 42 42 43 44 45 46 46 46 46 46 46 46 45 45 45 45 45 46 46 47 48 49 50 49 49 49 48 46 45 44 44 44 43 43 43 42 41 41 41 42 41 39 38 38 38 39 39 39 39 40 39 38 36 33 30
37 39 39 42 43 44 44 42 41 42 42 43 44 46 46 45 45 45 45 46 46 46 45 44 45 46 46 47 48 50 50 50 49 49 48 47 46 45 45 44 44 44 44 43 42 41 40 39 39 38 38 38 39 39 39 39 39 40 39 38 37 35 32
31 33 35 39 41 41 41 40 38 37 37 39 41 44 45 45 45 46 47 46 46 46 45 44 45 46 47 48 49 49 49 49 50 50 48 48 47 46 45 44 43 43 43 43 41 39 37 37 37 37 38 38 38 38 38 39 39 39 39 38 37 36 35
28 31 32 35 37 39 40 41 38 34 33 36 38 40 43 45 45 47 48 47 47 47 45 45 46 47 48 49 49 49 49 49 49 50 49 49 48 46 45 43 42 42 42 41 39 37 35 34 34 35 36 37 36 36 36 36 37 37 38 37 37 36 36
32 35 36 36 37 40 42 42 39 35 34 36 37 39 40 43 46 48 48 48 48 47 46 46 47 49 50 50 50 48 48 48 49 49 49 49 48 47 45 43 42 41 40 39 38 37 35 34 33 34 34 34 34 33 33 33 33 33 34 34 34 35 37
30 34 39 41 40 42 44 42 40 39 39 39 40 40 40 43 47 49 50 50 49 47 47 47 48 50 51 51 50 50 48 47 47 47 47 47 47 46 44 42 41 41 40 39 38 37 35 33 33 33 32 32 32 32 32 31 30 29 29 30 30 32 36
26 27 32 39 39 38 39 40 41 40 40 40 39 40 41 42 46 49 50 50 49 48 48 48 48 50 52 52 51 51 50 48 47 46 46 45 44 44 43 42 41 40 40 39 37 36 35 32 31 31 31 31 32 32 33 33 31 28 25 25 26 30 35
26 25 24 28 34 38 38 40 43 43 41 38 37 40 42 42 44 47 49 49 49 49 50 50 49 50 52 52 53 52 51 50 49 47 45 44 43 42 42 42 41 40 39 38 37 36 35 33 31 31 31 32 33 34 35 33 29 25 22 21 23 29 33
22 23 19 18 25 35 38 39 42 43 40 36 36 40 42 41 42 46 48 48 50 50 50 50 51 51 51 52 53 54 53 52 51 49 46 44 43 42 42 42 41 40 38 38 37 37 36 35 33 33 33 33 34 33 32 29 25 22 20 20 22 26 30
14 15 15 15 19 27 33 36 38 39 38 37 38 40 40 39 41 44 46 46 48 50 50 51 52 52 51 52 53 55 54 53 52 50 48 46 44 43 42 42 40 39 38 38 38 38 37 36 35 34 33 31 30 29 27 25 22 20 20 21 22 24 27
18 19 20 20 20 22 28 35 37 38 38 39 40 40 38 38 40 43 44 46 47 49 50 50 52 54 52 51 53 55 54 53 52 51 49 48 45 44 43 41 38 38 37 37 36 35 34 33 32 31 28 25 23 22 20 19 18 17 17 19 21 24 27
25 21 21 20 18 18 21 30 38 40 40 40 41 40 37 37 40 43 44 46 48 49 50 50 52 55 54 52 52 54 54 53 52 52 50 48 46 44 42 39 35 35 34 33 32 31 31 31 30 27 25 22 19 18 16 15 14 13 14 16 20 22 25
31 21 18 20 19 15 14 24 36 42 42 39 38 40 38 37 40 42 43 46 49 49 51 52 51 53 55 53 52 53 54 53 52 52 50 48 46 43 39 35 33 32 31 30 29 29 30 30 28 25 22 20 18 16 15 14 12 12 13 15 17 18 21
22 20 18 19 20 16 13 19 32 40 41 37 37 40 40 39 42 43 41 44 49 52 53 53 51 52 52 52 52 53 53 53 52 51 49 47 44 40 35 33 32 31 30 29 29 29 28 28 26 23 21 18 16 14 13 13 12 11 11 12 13 13 15
9 9 11 12 17 18 14 17 29 38 39 38 41 44 43 41 43 44 42 45 49 51 52 52 51 51 51 51 52 52 52 51 50 48 46 43 39 37 35 33 31 30 29 28 27 26 26 25 24 22 19 17 14 12 12 11 10 10 9 9 10 11 12
8 8 8 8 7 11 11 17 32 42 43 43 44 45 44 44 46 44 44 48 49 49 50 50 49 50 50 50 51 52 52 50 47 44 41 39 37 36 34 32 30 29 28 26 25 24 24 23 21 18 16 15 14 12 11 10 10 10 10 10 10 11 13
7 5 8 11 8 4 6 13 24 33 38 41 45 47 44 44 47 47 46 47 48 48 48 48 48 49 49 50 50 50 48 45 42 40 38 37 36 35 33 32 30 28 26 24 23 22 22 21 19 16 14 14 13 12 11 10 10 11 12 13 12 13 14
9 7 6 6 6 5 5 9 15 19 22 24 30 41 48 45 43 46 48 47 47 48 48 47 49 50 49 48 48 46 44 41 38 37 36 36 35 34 33 31 30 28 26 24 22 22 21 20 17 15 14 14 14 12 10 10 12 14 15 16 15 14 15
7 6 4 1 2 4 6 9 15 20 21 17 17 22 36 46 45 44 47 47 48 48 48 49 50 49 48 46 45 44 42 40 37 36 35 35 34 33 31 30 28 27 25 23 22 21 20 19 17 15 14 14 13 12 11 13 16 17 17 17 18 17 17
8 5 4 4 3 6 10 11 14 17 19 21 21 20 17 31 43 47 48 48 49 49 50 51 51 48 48 47 45 43 40 38 36 36 36 35 33 32 30 28 26 25 23 22 22 21 19 17 16 15 14 15 13 12 14 17 19 18 17 17 18 18 17
9 4 3 5 6 9 12 13 13 13 13 18 23 20 12 10 23 38 44 46 49 50 50 51 51 50 48 46 43 40 37 36 37 37 36 35 33 31 29 26 24 22 22 21 20 18 16 15 14 14 16 15 15 16 19 20 19 17 16 15 16 17 17
12 6 2 3 4 5 7 6 5 9 12 14 19 25 19 7 8 23 34 39 45 49 48 47 47 45 42 38 38 38 38 38 38 38 37 35 33 31 28 25 23 22 20 18 15 12 12 13 14 15 15 14 15 17 18 18 16 15 14 13 14 15 16
19 15 11 8 7 7 5 1 4 8 13 15 15 22 25 14 12 22 33 36 40 44 44 39 36 36 36 36 38 38 39 39 38 36 36 34 32 30 27 24 21 18 16 15 14 15 14 14 15 15 13 12 13 13 12 11 11 12 13 12 13 13 13
23 22 21 17 13 11 10 4 3 7 11 15 15 18 23 19 18 23 32 33 32 32 29 25 27 33 37 38 39 39 39 39 37 35 33 30 28 27 25 23 20 18 16 17 19 20 19 18 17 14 11 11 11 11 10 10 11 12 12 12 12 12 13
24 20 22 24 20 17 16 11 1 6 10 14 14 15 18 19 16 18 23 23 21 20 20 22 28 36 38 38 39 39 39 37 34 31 29 26 24 23 22 22 22 22 22 21 21 20 20 18 17 16 13 11 9 9 9 10 10 10 10 11 11 12 13

ECMWFFLT1_850_spd_024.txt.gz
Wind_Speed
46 48 50 52 53 53 54 55 56 56 56 56 56 57 57 56 56 56 55 54 53 51 49 49 48 47 46 46 46 45 44 41 39 37 35 35 34 33 32 31 30 28 28 27 26 24 22 22 22 20 18 16 14 15 16 16 17 18 19 19 18 17 16
43 46 49 50 51 53 54 55 56 56 56 57 57 57 57 57 57 57 56 55 53 51 50 49 49 47 46 45 45 45 45 43 40 38 37 36 35 34 33 32 30 29 29 28 26 25 23 23 22 21 19 17 16 16 16 17 18 20 21 21 20 19 18
41 44 47 50 52 53 55 56 56 56 57 57 57 57 58 58 58 58 57 55 54 52 50 49 49 47 45 44 44 44 45 44 42 40 39 38 37 36 35 33 31 30 30 29 27 26 25 24 23 22 21 19 18 17 17 18 20 21 21 21 21 20 19
41 44 47 50 53 55 55 56 56 56 57 57 58 58 59 59 59 58 57 55 54 53 52 50 48 47 45 44 43 43 44 45 44 42 40 39 38 36 36 35 33 32 31 30 28 27 26 26 25 24 23 22 20 19 18 18 20 22 21 22 22 22 21
41 43 45 48 52 54 55 56 56 57 57 57 58 58 58 58 58 58 56 55 54 53 52 50 47 46 46 44 42 42 42 43 44 43 41 40 39 38 37 37 35 34 33 31 29 28 27 27 27 26 26 24 22 20 20 20 20 22 22 22 23 23 22
40 42 42 46 50 53 55 56 57 57 57 57 57 57 57 57 57 57 56 55 54 53 52 50 48 46 45 45 43 41 40 41 43 44 43 41 40 40 39 38 37 35 34 32 31 30 29 28 28 28 27 26 24 22 22 22 21 22 23 24 23 23 22
42 43 45 48 50 52 55 57 57 57 57 56 56 56 56 56 56 57 56 56 55 53 52 52 50 47 45 45 44 42 40 40 41 43 43 42 41 41 40 40 38 37 36 34 32 31 30 30 30 29 28 27 26 25 24 24 24 23 24 25 25 24 23
44 45 47 49 50 52 54 55 55 55 55 54 54 55 55 56 56 56 56 56 55 54 53 53 51 49 46 45 44 42 40 39 40 42 43 43 42 42 42 41 40 39 38 36 35 33 32 32 31 30 29 28 27 27 27 27 26 26 26 26 26 25 25
44 46 49 50 51 53 53 54 54 53 53 52 53 54 54 55 56 56 57 57 56 55 54 53 51 49 48 46 45 42 39 38 39 41 42 43 44 43 43 42 42 40 40 38 36 35 33 33 32 32 31 30 30 29 29 29 29 28 28 27 27 26 26
43 46 50 51 52 53 53 53 51 50 50 51 52 53 53 54 55 56 56 56 56 56 54 52 51 50 49 48 47 43 40 38 39 41 42 43 44 44 43 43 43 42 41 40 38 37 35 34 34 33 32 32 33 32 32 31 31 31 30 30 29 27 27
42 46 49 49 51 52 50 47 47 48 51 52 53 52 52 53 54 55 55 56 56 55 53 52 51 51 51 50 49 46 43 40 39 41 43 43 44 45 44 44 44 43 42 41 40 39 37 36 36 35 35 35 35 34 33 32 32 32 32 32 31 30 29
42 44 46 48 50 48 44 43 45 49 51 51 52 52 51 52 53 54 55 55 54 53 52 52 51 51 51 51 50 49 45 42 41 41 42 43 44 44 45 45 45 45 43 42 41 41 39 38 38 37 37 37 36 35 34 33 32 33 33 33 34 33 31
42 44 46 47 47 45 42 42 45 48 50 51 51 51 51 52 53 54 54 54 53 52 52 52 51 51 52 52 52 50 48 45 42 41 42 43 44 45 45 46 46 46 45 44 43 42 42 40 39 39 39 38 38 37 35 34 33 34 34 35 35 36 34
41 43 45 44 44 43 43 44 46 47 48 50 50 51 51 51 52 53 54 54 53 52 52 52 52 52 52 52 52 52 50 47 43 41 41 42 44 45 46 47 47 47 46 45 45 44 43 42 41 40 40 39 39 38 37 36 35 35 36 36 36 37 36
35 37 37 38 41 43 44 46 47 47 48 48 48 50 51 51 51 52 53 53 53 52 53 53 53 54 53 53 53 52 51 49 46 43 42 43 45 47 48 48 48 48 48 47 46 45 45 44 43 42 41 40 40 39 39 38 38 38 37 37 37 38 37
29 32 34 37 41 43 45 46 46 47 48 47 47 48 49 50 51 52 53 53 53 54 54 54 54 54 54 54 54 53 51 50 48 46 45 45 46 47 49 49 49 49 49 48 47 46 46 45 45 43 42 41 41 40 41 40 40 39 38 38 38 38 36
31 34 38 42 45 47 47 47 46 46 46 46 45 46 47 48 50 51 53 53 54 54 54 54 55 55 56 55 54 53 52 51 50 49 48 47 47 48 49 50 50 50 51 50 48 47 46 46 45 44 43 42 41 41 41 41 40 39 38 38 38 37 35
31 36 41 44 46 46 46 46 46 46 46 46 44 44 45 47 49 51 53 54 55 55 55 55 56 56 56 55 53 53 52 52 52 51 50 49 48 48 49 50 51 51 51 51 49 48 46 46 45 44 43 41 40 40 40 39 38 37 37 37 36 35 33
29 33 37 41 43 44 44 46 46 47 47 45 43 43 45 47 50 52 53 55 55 55 55 55 56 56 56 54 53 53 52 52 53 52 51 50 49 49 50 51 52 52 52 51 49 47 46 45 44 43 42 41 40 40 38 36 35 35 35 35 34 32 30
27 30 33 36 39 42 44 45 46 46 46 44 42 42 44 47 50 52 53 54 55 54 55 56 56 56 56 55 54 53 52 52 53 53 51 50 50 50 51 52 52 52 51 50 48 47 46 45 43 42 41 40 39 38 36 35 34 34 33 32 31 28 28
24 26 31 35 37 40 43 44 44 44 44 45 44 44 46 48 50 51 53 53 53 53 54 55 56 56 56 56 55 54 53 53 53 52 51 50 50 51 51 52 52 51 50 49 48 47 45 43 42 41 40 39 38 37 35 34 34 33 31 30 27 24 25
28 27 30 33 34 36 38 42 44 44 45 47 47 47 48 49 50 52 53 53 53 53 54 54 55 56 56 57 56 55 54 54 53 52 51 50 50 50 50 51 51 50 49 48 46 45 44 41 40 39 39 38 37 35 35 35 34 32 29 26 23 21 24
28 33 35 36 37 36 36 40 44 46 46 47 48 49 50 50 51 53 53 53 52 52 53 54 55 56 56 57 57 56 55 54 53 52 51 50 50 50 50 49 49 49 48 46 46 45 43 40 39 39 38 37 36 35 35 34 32 30 26 23 21 20 22
17 26 30 33 36 38 38 42 47 48 49 48 48 50 49 49 51 53 53 52 52 52 53 54 56 57 57 58 58 58 56 54 53 52 50 50 50 49 49 48 47 47 46 45 45 43 41 39 39 39 37 36 35 34 33 32 30 28 26 23 21 20 21
7 14 17 20 25 30 33 37 41 45 49 49 48 48 48 47 48 49 50 49 49 51 53 55 57 57 58 58 59 58 57 55 53 52 51 50 50 49 48 47 46 45 44 43 43 41 39 39 39 38 37 35 34 32 31 30 29 27 25 22 20 20 21
4 4 8 11 18 24 28 30 30 34 42 47 49 49 49 47 46 46 47 47 48 51 53 55 56 57 57 58 58 58 57 56 54 53 52 51 50 49 48 46 45 44 44 44 43 40 39 39 38 37 36 34 33 31 30 28 26 24 22 20 20 21 22
9 7 4 3 8 15 21 25 27 28 31 36 42 45 46 47 47 46 46 46 48 51 53 54 55 55 56 57 58 57 56 55 55 54 53 52 51 49 48 47 47 46 45 44 42 40 39 39 38 37 35 34 32 30 29 26 24 22 21 19 20 21 21
8 7 6 4 2 7 11 15 21 27 29 31 35 40 42 45 49 50 49 49 50 51 52 52 54 56 58 58 58 57 56 55 55 55 53 53 52 51 50 49 48 48 47 45 42 40 40 40 39 37 35 33 31 30 28 25 23 22 21 20 20 21 19
7 6 4 4 2 3 6 8 13 21 30 33 35 37 38 40 43 46 47 48 49 50 52 54 55 56 57 57 57 57 56 55 55 55 55 55 54 52 51 51 50 49 47 44 42 41 41 41 40 38 35 33 31 29 26 24 23 22 21 21 21 20 18
7 6 4 4 3 1 2 4 6 10 18 26 30 32 33 34 37 40 41 41 42 42 44 49 54 55 55 55 56 56 55 54 54 55 55 55 54 53 53 52 51 50 47 45 43 43 42 41 39 36 34 32 30 28 25 23 22 22 21 21 21 19 18
10 8 7 5 3 2 2 2 3 4 7 13 21 27 29 31 34 37 39 40 40 38 36 37 44 50 53 54 55 55 55 54 53 53 55 55 54 55 54 53 51 49 47 45 43 42 41 39 36 34 33 31 28 25 23 22 21 21 21 21 20 19 19
12 11 11 9 8 6 5 3 4 5 4 7 14 21 24 28 30 32 34 36 36 37 35 31 34 42 49 52 55 55 54 53 51 50 50 50 50 50 51 51 51 48 44 42 39 38 38 36 34 32 30 27 24 22 21 21 21 22 22 21 21 21 20
14 13 13 13 12 11 9 7 6 6 6 7 10 15 19 24 27 30 33 35 34 34 31 24 24 34 42 45 48 49 48 48 49 47 47 47 49 50 49 47 44 41 38 36 34 34 35 34 32 30 27 23 21 20 19 21 22 23 24 24 24 24 22
15 14 13 13 12 11 10 10 8 7 8 8 9 13 17 22 27 30 33 35 35 36 34 28 25 30 33 34 38 42 44 46 49 50 51 50 49 48 45 41 37 35 33 32 32 35 35 32 29 27 24 21 20 19 20 23 24 24 25 26 26 26 25
18 16 15 13 11 9 8 8 6 6 7 7 9 13 16 19 23 27 30 31 33 36 37 34 32 36 36 34 36 42 46 49 52 53 52 49 44 41 40 37 33 31 31 32 32 32 28 24 22 21 19 17 17 18 20 23 23 22 23 23 23 23 23
21 18 16 14 12 9 6 5 5 5 4 5 7 11 14 16 19 21 23 27 30 34 35 36 39 45 48 45 44 47 50 52 53 51 47 44 43 40 38 34 30 29 30 31 28 23 17 14 13 13 14 14 14 15 16 17 19 21 21 21 21 20 20
24 22 20 18 15 11 8 7 6 5 3 2 5 8 12 14 16 18 19 21 24 28 34 39 41 42 45 47 48 51 53 51 49 45 40 39 39 37 35 33 31 29 28 25 20 17 14 12 11 11 12 14 16 17 16 16 18 20 21 20 21 20 19
25 24 23 21 19 17 14 11 9 9 9 8 5 1 4 6 9 12 16 20 26 30 35 41 42 40 41 40 38 40 43 41 39 38 36 36 36 35 35 37 36 31 25 20 17 17 17 17 16 17 16 16 18 20 21 21 21 20 20 20 20 19 18

ECMWFFLT1_850_spd_027.txt.gz
Wind_Speed
45 46 48 49 50 51 53 55 56 56 57 57 58 58 58 58 57 56 56 56 56 55 53 52 51 49 48 47 46 45 45 44 43 42 42 41 39 36 35 35 35 33 32 30 29 27 25 25 25 24 22 21 20 19 19 20 19 17 16 16 17 16 15
42 45 47 49 50 51 53 55 56 57 57 57 58 58 58 58 58 58 57 56 56 56 55 54 52 51 49 48 47 46 46 45 44 43 42 41 40 38 36 36 36 34 32 30 29 27 26 25 25 24 23 22 21 20 20 20 19 18 17 18 18 18 17
41 45 47 49 51 53 54 55 56 57 57 57 57 58 58 59 60 59 58 57 57 56 56 55 54 52 50 49 48 47 47 46 45 44 43 41 40 39 37 37 37 36 33 31 30 28 27 26 25 24 24 23 22 21 21 21 19 18 18 20 20 19 19
43 47 50 50 52 54 55 56 56 57 58 58 58 59 59 60 60 60 59 58 58 57 57 56 55 53 52 50 49 48 47 47 46 45 43 42 39 38 38 38 38 38 36 34 31 30 28 28 27 25 25 25 24 23 22 21 20 19 20 22 21 20 20
43 47 47 47 49 52 55 56 56 57 58 58 58 59 60 60 60 59 59 59 58 58 57 56 55 54 53 52 50 48 47 46 46 45 43 42 40 39 38 39 39 39 38 36 33 32 30 29 28 27 26 26 25 24 23 22 21 20 21 23 23 22 22
41 44 44 47 50 52 55 57 57 58 59 59 59 59 59 58 58 58 59 59 59 58 57 56 56 55 54 53 52 50 47 46 46 45 44 42 41 40 39 39 39 40 40 38 36 34 32 31 30 28 28 28 27 26 25 24 23 21 21 23 24 24 23
41 43 46 49 51 53 56 57 57 58 59 59 59 58 57 56 56 58 58 58 58 58 57 57 57 56 55 54 52 51 49 47 46 45 45 43 42 41 40 40 40 40 41 40 38 36 34 33 32 30 29 29 28 28 26 26 25 23 23 24 25 25 24
42 44 48 50 51 53 55 57 57 57 58 57 55 54 54 54 55 56 57 58 58 57 58 58 58 57 56 53 52 51 49 47 45 45 45 44 43 41 40 40 40 40 41 42 41 38 36 34 33 31 30 30 30 29 28 27 27 25 24 24 25 25 25
42 44 47 49 50 52 54 56 57 57 56 54 53 53 53 54 55 56 57 58 58 58 58 58 58 57 56 54 52 51 49 47 46 45 45 44 44 42 40 41 41 41 42 42 42 41 38 36 34 33 31 31 31 30 29 29 29 28 27 26 25 25 25
39 41 44 46 48 50 52 54 54 53 52 52 52 52 53 54 55 56 57 57 58 59 59 58 57 56 56 55 53 50 49 48 47 46 46 45 45 42 40 41 41 41 42 42 42 42 40 38 36 34 33 32 32 32 31 30 30 30 29 27 26 25 25
36 38 40 43 45 47 49 50 49 49 51 51 52 52 53 54 55 55 56 56 58 58 58 57 56 56 56 55 54 52 50 49 47 47 47 46 45 43 40 40 41 42 42 42 43 43 42 40 38 37 36 34 34 33 33 32 31 31 30 29 28 27 26
33 35 38 42 43 45 48 48 47 49 51 53 53 53 54 55 55 55 55 56 57 57 57 57 56 55 55 55 55 53 52 50 49 48 47 46 46 44 40 39 41 42 43 43 42 42 42 42 40 39 37 36 35 34 34 33 33 32 32 30 29 29 28
33 33 38 43 44 46 47 47 47 49 52 54 54 54 55 55 55 55 55 56 56 56 56 56 56 55 55 55 55 55 53 51 49 48 47 46 45 44 42 40 40 41 42 43 42 42 43 42 42 40 39 38 37 36 35 35 34 34 33 32 31 31 31
33 34 36 39 41 42 44 47 48 50 52 53 54 54 54 54 55 55 56 56 55 55 55 55 55 55 55 55 55 55 54 52 49 48 47 46 45 44 43 42 41 40 41 42 42 43 42 42 42 41 40 39 39 38 37 36 35 35 35 34 34 33 33
31 34 36 38 38 40 43 48 50 51 52 53 53 53 53 53 54 54 54 54 54 54 55 55 55 55 55 55 56 55 54 52 50 49 48 47 46 45 44 43 42 41 41 41 42 42 42 42 42 42 42 41 40 39 38 37 37 37 36 36 35 35 34
30 34 37 40 42 43 46 49 51 52 53 53 53 53 53 53 54 54 54 54 53 54 55 55 55 55 56 56 56 55 54 52 51 50 49 49 48 46 44 44 43 43 42 41 41 42 41 42 42 43 43 42 41 40 39 38 38 37 37 37 36 35 35
30 34 36 39 42 45 47 49 51 52 52 53 54 54 54 55 54 54 54 54 54 54 55 54 54 55 56 56 55 54 54 53 52 51 50 49 49 47 46 45 44 44 43 42 42 41 41 42 43 44 44 43 42 41 40 39 38 38 37 36 36 36 36
27 32 36 38 40 42 45 47 49 50 52 53 54 54 54 54 54 53 53 53 54 54 54 54 54 55 56 56 55 54 54 53 52 51 51 50 49 48 47 46 45 45 44 43 42 42 42 43 43 44 44 43 43 42 41 40 39 38 37 36 35 35 35
25 31 35 38 39 40 43 46 47 50 52 53 54 55 55 54 53 53 53 53 53 53 52 53 54 55 55 55 55 55 54 53 52 52 51 50 49 49 48 47 46 45 44 43 43 43 43 43 43 44 44 44 43 42 41 40 40 39 37 35 34 34 34
24 29 33 36 37 39 42 43 45 47 50 52 54 55 55 54 53 53 53 52 52 51 52 53 54 55 55 55 55 54 54 53 52 51 51 50 49 49 49 48 47 46 45 44 44 44 44 45 45 44 44 44 43 42 41 40 40 38 36 34 33 32 31
20 24 30 33 35 38 40 41 43 45 47 49 51 52 52 51 51 51 51 50 50 51 52 53 53 54 54 55 55 54 54 53 52 52 51 51 50 49 49 49 48 47 46 46 45 45 45 45 45 45 44 43 42 41 40 39 39 37 35 33 31 29 29
14 18 25 30 33 36 36 36 40 43 46 49 50 49 49 48 48 49 49 49 50 51 51 52 53 53 53 54 54 54 54 53 52 52 51 50 50 50 50 49 49 48 47 47 47 46 46 46 46 45 44 43 41 40 40 38 37 35 33 32 29 28 28
8 12 18 22 27 30 31 31 34 38 43 48 49 48 46 44 45 48 49 49 49 49 50 51 52 52 53 53 54 54 54 53 53 52 51 50 50 50 50 50 49 49 49 49 49 48 48 47 46 45 43 42 40 40 39 37 34 32 31 30 27 27 29
2 8 12 15 18 21 24 26 29 33 37 41 43 44 43 42 43 47 48 48 47 47 48 50 51 52 52 53 53 53 53 53 53 52 51 51 51 50 50 49 49 49 49 49 50 49 48 47 45 43 42 41 40 38 37 34 31 30 30 28 26 28 29
5 0 6 11 15 19 20 22 24 26 30 34 37 39 40 42 44 46 47 46 45 45 47 49 50 51 51 52 52 52 53 53 53 53 52 51 51 50 49 49 49 49 49 49 50 48 47 45 44 43 41 40 38 36 34 32 30 29 28 27 28 30 29
9 7 2 3 9 14 17 19 21 23 26 31 34 36 40 42 44 45 47 46 45 45 46 46 47 47 48 49 50 51 52 53 53 53 53 52 51 50 49 48 48 48 49 49 49 47 45 44 43 42 41 38 36 35 33 31 29 28 28 28 30 30 28
9 8 6 3 1 6 9 13 17 21 24 27 30 34 37 39 41 43 45 45 46 46 46 44 43 44 45 47 49 50 52 53 54 54 53 52 51 50 49 48 48 48 48 48 47 46 44 43 43 41 39 37 35 33 31 30 29 27 28 30 29 28 26
7 7 6 5 3 2 5 8 11 14 17 20 24 28 31 33 36 39 41 42 45 47 46 44 44 44 45 47 49 50 52 53 54 54 53 52 52 51 50 49 49 48 47 46 46 45 44 43 42 41 39 36 34 33 31 30 29 28 28 29 28 26 25
6 7 6 6 6 4 3 4 6 9 11 14 19 23 26 27 30 33 36 40 43 45 45 45 45 45 46 48 49 50 52 53 53 54 53 53 53 52 51 50 49 47 47 46 45 45 44 43 42 40 39 37 35 33 31 30 29 28 28 27 26 24 22
5 6 6 6 6 7 6 4 3 4 7 10 13 17 21 24 25 28 32 36 39 42 45 45 45 45 46 48 49 50 52 52 52 52 52 53 53 52 50 49 48 47 46 46 45 44 43 42 41 39 38 36 34 32 30 29 29 28 27 26 24 22 21
5 4 4 4 4 5 6 6 6 5 5 6 7 9 12 16 20 24 28 32 35 40 43 44 43 43 45 46 48 50 51 51 51 51 51 51 51 51 50 49 48 48 47 46 46 46 45 43 42 40 36 31 28 28 29 29 29 28 27 26 24 23 23
5 4 4 4 4 4 5 6 7 7 6 7 7 7 8 10 13 18 22 25 29 33 37 40 41 42 42 44 46 48 50 50 50 50 50 50 51 52 53 52 51 51 51 50 49 48 48 46 43 38 32 26 24 28 31 31 30 30 28 26 24 24 25
7 6 6 6 7 7 7 7 7 7 7 7 7 7 9 10 11 14 16 19 23 27 32 35 38 40 41 42 43 45 47 49 50 50 51 51 52 53 53 54 55 55 54 54 53 51 49 46 41 36 32 28 29 32 32 32 32 31 29 27 26 26 26
12 10 9 10 10 10 10 10 9 9 9 8 8 8 9 11 12 15 17 18 20 23 26 29 32 35 38 40 41 43 45 47 48 49 49 49 50 52 54 55 56 57 57 56 55 54 51 45 40 37 35 32 33 34 34 34 34 32 29 28 27 27 28
13 12 12 12 11 9 9 9 9 9 9 8 8 8 9 11 13 15 17 19 21 22 23 25 27 30 34 38 41 43 44 44 46 47 48 49 50 52 54 56 57 58 59 58 56 54 51 46 41 39 36 33 33 34 34 34 33 30 27 26 25 26 27
12 12 11 10 9 7 6 7 7 7 7 6 6 6 7 10 12 13 15 16 18 19 21 23 25 27 31 35 38 40 42 44 46 48 50 53 54 55 55 56 57 57 57 56 52 48 44 41 37 35 34 33 31 29 25 23 24 24 24 24 24 25 25
12 11 10 10 8 6 5 5 6 7 6 6 7 7 7 8 10 12 13 14 14 15 17 20 22 25 29 33 36 39 42 45 48 51 53 55 57 60 60 58 56 54 53 51 47 42 37 33 29 29 31 30 27 23 20 17 17 19 22 24 24 23 22
13 12 12 11 10 8 6 5 5 6 7 7 8 8 8 9 10 11 13 13 13 13 12 14 17 20 23 27 31 36 41 45 47 51 57 59 59 61 64 62 58 54 49 45 43 41 36 29 25 25 27 25 21 20 20 20 18 19 22 23 23 21 20

ECMWFFLT1_850_spd_030.txt.gz
Wind_Speed
41 42 46 47 48 49 51 54 53 53 54 54 54 54 53 53 53 53 53 52 52 51 50 49 49 48 47 46 44 42 41 40 39 38 38 38 36 34 33 31 30 29 29 30 29 28 28 26 25 24 24 23 22 20 18 17 17 17 16 17 17 17 16
35 40 45 46 48 50 52 53 53 53 54 54 55 54 53 54 54 55 54 53 53 51 51 51 50 50 49 47 45 44 44 43 41 39 38 37 37 35 34 32 31 30 29 29 29 28 28 27 26 25 24 23 22 20 18 17 17 17 17 17 17 17 17
35 41 44 47 50 53 54 53 52 53 54 54 54 54 55 55 55 55 55 54 53 52 52 52 51 51 50 49 47 46 45 44 43 42 40 38 37 35 35 34 32 31 29 29 28 29 29 28 27 26 24 23 22 20 19 18 18 18 18 18 18 18 17
36 40 45 49 52 53 53 53 53 54 55 55 55 56 57 57 56 56 55 54 53 52 51 51 51 51 50 50 49 48 47 46 45 44 42 40 38 36 35 35 34 33 31 30 29 29 30 29 28 27 25 24 23 21 20 19 19 19 18 19 19 19 18
35 39 42 45 47 49 50 52 54 55 55 56 55 56 56 57 56 56 55 55 54 53 50 49 49 50 50 50 50 49 48 46 45 44 43 42 40 39 37 36 34 33 33 31 30 30 30 29 29 28 26 25 24 22 21 20 20 20 20 20 20 20 19
36 39 41 43 46 49 51 53 55 56 57 56 56 56 56 55 55 55 56 55 55 54 52 51 51 51 50 50 50 50 49 47 46 45 44 43 42 41 39 37 35 34 33 32 31 31 30 30 29 28 27 26 25 24 23 22 22 22 22 21 21 21 20
39 41 42 44 46 49 52 54 54 56 57 56 55 55 54 53 54 55 55 55 56 55 54 54 53 52 52 51 50 50 50 49 48 46 45 44 44 43 40 38 36 35 34 33 32 31 31 31 30 29 28 27 26 25 24 23 23 23 23 23 22 21 21
43 43 44 46 48 50 51 52 53 54 55 55 53 52 52 52 52 53 54 55 56 56 55 55 55 54 53 52 51 51 50 49 48 47 46 45 44 43 41 39 37 36 35 35 33 32 32 31 30 29 29 28 27 26 25 25 24 24 24 24 24 22 21
43 43 45 46 46 46 47 50 52 52 52 53 52 52 52 51 52 53 54 55 56 56 56 56 55 54 53 53 52 51 50 49 49 48 47 46 46 44 42 39 37 37 37 36 34 33 33 32 31 30 30 29 29 28 27 27 26 26 26 26 25 24 23
38 39 41 40 38 39 42 45 48 48 49 51 51 51 51 52 53 53 54 55 55 56 57 57 56 55 54 54 53 52 51 51 50 50 49 48 47 45 43 40 37 37 38 37 36 34 34 33 33 32 32 31 31 30 29 29 28 27 27 27 27 26 24
35 36 36 36 34 35 37 40 44 47 48 50 51 51 51 52 53 53 54 54 55 56 56 56 56 55 55 55 54 53 52 52 51 51 51 49 47 46 43 40 38 38 38 38 37 36 35 35 34 34 33 33 32 31 30 30 29 28 27 28 28 28 26
31 32 34 36 35 35 37 40 44 47 49 50 52 52 52 53 53 54 54 55 55 56 56 56 56 56 55 55 54 54 54 53 53 52 51 50 48 46 43 41 38 38 39 39 38 37 36 36 36 35 34 34 34 33 32 31 30 29 28 28 28 28 28
24 26 30 34 35 37 37 39 43 47 49 50 51 52 53 53 54 54 54 55 55 55 55 55 55 55 55 55 54 55 54 53 53 52 51 49 47 46 43 40 38 38 39 38 38 37 37 37 37 36 35 35 35 35 34 33 32 30 29 29 29 29 29
19 22 26 29 32 35 37 39 43 46 48 49 50 51 52 53 53 54 54 55 55 54 54 54 54 55 55 55 55 55 54 53 53 52 50 49 48 46 44 40 38 37 38 38 38 38 38 39 38 37 37 37 37 36 36 35 33 31 30 30 30 29 30
20 22 24 27 31 34 37 39 42 45 47 49 49 50 51 51 52 53 53 54 54 54 54 54 54 55 55 55 56 55 54 53 52 52 50 49 48 47 45 41 39 38 37 37 38 38 38 39 39 39 39 39 39 38 38 37 35 33 32 31 31 31 30
22 22 24 26 30 33 36 38 40 44 47 48 49 49 50 51 52 53 53 54 54 54 54 54 54 55 55 56 56 54 53 53 52 52 51 50 49 48 46 43 40 39 38 37 37 38 39 40 40 41 41 41 40 40 40 39 36 34 33 32 31 31 30
21 21 21 23 26 30 33 36 39 42 44 47 48 49 50 51 52 53 53 53 54 54 54 54 54 55 55 56 55 54 53 53 53 52 52 51 50 49 47 44 42 40 39 38 38 39 40 41 41 42 43 42 42 41 41 39 36 34 33 32 32 31 31
20 19 19 20 21 24 29 34 38 41 44 46 48 49 50 50 51 52 52 53 54 54 53 53 54 55 55 55 54 54 54 53 53 53 52 51 50 49 48 46 44 42 40 40 39 40 41 42 43 43 43 43 43 43 42 40 36 35 34 33 32 31 31
21 21 20 20 20 21 24 28 33 38 42 45 47 49 50 50 50 51 51 52 53 52 52 53 54 54 54 54 54 53 53 53 53 53 52 51 51 50 49 48 46 45 43 41 40 41 42 43 44 44 44 44 44 44 43 39 36 36 36 34 32 31 30
21 22 22 22 22 23 24 25 28 33 38 42 45 46 48 49 50 50 49 50 50 51 52 53 53 54 54 54 54 53 53 53 53 52 52 51 50 50 50 49 48 46 44 42 42 43 44 44 44 44 44 44 44 44 42 39 37 37 37 35 33 31 30
20 21 23 23 24 26 25 24 25 29 33 38 41 43 46 47 48 48 48 49 49 50 52 52 53 53 53 53 53 53 52 52 52 52 51 50 50 50 50 50 49 48 46 45 44 45 45 44 44 45 45 44 44 44 43 40 39 39 38 35 32 30 29
20 21 23 23 23 25 24 22 22 24 27 31 36 40 43 45 46 48 48 49 49 50 51 51 51 52 51 52 52 52 52 52 52 51 50 49 50 50 50 50 50 49 48 46 46 46 46 46 46 46 46 45 44 44 43 41 40 40 38 35 31 29 28
16 17 17 18 19 21 20 19 20 21 23 27 31 35 38 40 43 45 46 47 48 48 48 48 49 49 50 50 51 51 51 51 51 50 49 49 49 50 50 50 49 49 48 48 48 48 48 48 47 46 46 45 44 44 43 42 42 41 38 34 31 29 28
8 9 9 10 12 15 15 15 16 17 19 22 25 27 31 35 39 41 42 44 45 46 46 47 47 47 48 49 49 49 50 49 49 49 48 48 49 49 49 49 49 48 48 48 49 49 49 48 47 47 47 46 45 44 43 43 42 40 38 34 31 29 27
3 1 2 3 5 8 9 10 11 11 12 15 18 21 25 30 35 38 40 42 43 44 45 46 45 44 45 47 48 48 49 48 47 47 48 48 48 48 48 48 48 48 48 48 48 48 48 48 48 48 48 47 45 44 43 43 42 40 38 34 30 27 26
9 8 6 4 1 1 3 4 5 6 6 7 8 12 18 24 29 34 37 38 41 43 44 44 42 41 42 44 46 47 48 47 46 46 46 46 46 46 47 47 47 47 48 49 49 48 48 48 49 49 49 47 46 44 43 43 42 40 36 32 29 26 25
13 13 13 11 9 7 5 3 1 1 3 4 3 5 10 16 23 28 32 35 39 42 42 42 41 40 41 42 44 46 47 47 46 45 44 44 44 44 45 45 46 47 48 49 49 49 48 48 49 49 49 48 46 45 44 43 41 38 34 31 28 26 26
14 14 15 15 14 13 12 10 8 5 0 3 4 5 7 11 17 22 28 33 37 38 39 40 41 41 40 42 44 45 46 47 46 45 45 45 46 46 45 44 45 46 47 48 49 49 49 49 48 48 48 48 47 46 44 42 40 37 33 30 28 26 26
13 13 13 14 15 15 15 14 14 12 8 4 2 4 6 8 12 16 22 28 30 32 34 37 38 38 39 41 43 44 45 47 46 46 46 47 48 48 47 45 45 46 47 48 49 50 50 49 49 49 48 48 47 46 45 43 40 36 32 29 28 26 26
14 13 13 13 14 14 14 14 15 15 13 10 7 4 4 5 8 11 16 20 22 25 28 30 32 35 37 39 41 42 44 46 46 47 47 48 48 48 48 48 48 47 48 49 49 50 50 50 50 49 49 48 47 46 46 44 41 36 32 30 29 28 28
14 14 13 12 11 11 12 12 12 12 12 11 10 7 5 4 6 9 12 15 17 19 22 25 28 31 33 36 38 40 42 44 46 47 48 49 49 49 49 50 50 50 51 52 51 52 52 52 52 52 51 50 47 46 46 44 40 36 32 31 30 29 28
14 13 11 10 10 10 10 10 9 8 8 9 8 7 5 3 3 5 8 11 12 14 17 21 25 28 30 33 35 37 39 41 44 46 47 49 50 50 51 51 51 52 53 53 54 54 54 54 55 54 53 51 49 48 45 42 38 35 33 32 32 31 29
14 12 10 9 9 9 8 8 7 7 7 6 5 4 4 3 2 1 3 6 7 9 12 16 20 23 25 28 30 33 35 38 41 43 46 48 49 51 52 52 52 53 54 55 55 54 53 54 55 55 55 55 52 48 43 40 38 36 34 34 33 31 30
15 14 12 11 10 9 8 8 8 8 7 7 5 5 4 4 4 5 5 6 7 7 9 11 15 17 19 20 23 26 30 33 36 39 43 46 48 50 52 53 54 55 56 57 57 56 55 54 55 55 56 55 53 49 43 40 39 36 35 36 36 36 34
15 14 14 13 12 11 10 9 9 8 8 7 7 7 7 7 8 8 8 9 10 10 10 10 12 15 16 17 19 22 26 29 32 35 39 42 46 49 51 53 55 56 58 59 59 59 58 57 56 56 53 49 49 48 44 39 37 36 36 38 38 36 35
16 16 15 15 14 13 12 12 12 10 8 7 6 7 7 8 9 9 10 10 11 12 12 12 12 13 14 15 17 20 23 27 30 34 37 40 43 47 50 53 54 56 57 59 60 60 61 60 59 60 57 52 48 43 36 33 34 35 36 37 37 35 32
18 18 17 16 15 15 15 14 13 12 11 9 7 5 5 6 6 6 8 9 10 11 13 13 14 14 13 13 14 16 19 23 27 31 34 37 39 41 44 49 54 57 57 59 60 62 63 62 62 63 62 55 47 39 34 33 34 34 35 38 39 35 30
18 18 17 17 17 16 16 15 14 14 13 12 10 8 7 7 7 8 8 7 7 8 9 11 12 13 13 14 14 15 16 19 23 27 30 33 35 35 36 40 48 55 58 59 60 61 63 65 64 64 61 51 40 38 43 43 38 36 38 39 36 30 26

ECMWFFLT1_850_spd_033.txt.gz
Wind_Speed
32 33 35 37 40 48 53 54 53 51 50 49 47 47 47 48 50 51 51 51 50 50 49 48 47 46 44 42 40 39 37 36 35 35 35 36 36 36 35 34 33 31 30 29 27 25 24 24 23 22 22 21 21 21 21 21 20 18 17 16 16 16 15
28 32 35 36 40 47 52 54 54 53 51 50 48 47 48 49 50 50 51 51 51 50 50 49 48 48 46 44 42 41 39 38 37 36 35 35 34 34 33 33 33 32 30 29 28 27 25 24 23 23 22 22 21 21 22 21 20 19 18 17 17 17 16
27 31 34 37 42 49 53 55 55 55 54 52 50 49 49 49 48 48 49 50 50 50 51 51 50 49 47 46 44 42 40 39 38 37 36 35 33 33 32 32 32 31 30 29 28 27 26 25 24 23 23 22 22 22 22 22 21 20 18 17 18 18 17
29 32 34 38 44 49 52 53 54 55 56 55 53 52 50 48 47 47 48 48 49 50 50 51 50 50 49 47 45 43 42 41 40 38 37 36 34 33 33 31 30 30 30 29 28 26 25 25 24 24 24 23 23 23 23 22 21 20 19 18 19 18 17
29 31 30 34 40 45 49 52 54 55 57 57 56 54 52 49 48 48 48 48 49 49 48 49 50 50 50 49 47 45 43 41 40 40 39 38 36 35 34 33 31 30 30 30 29 28 26 25 25 25 25 24 24 24 24 23 22 21 20 20 20 19 18
27 30 33 36 39 43 49 52 53 55 56 57 57 57 55 52 51 50 50 49 49 48 48 49 49 49 49 49 48 47 45 43 42 41 41 40 39 38 36 35 33 32 31 30 29 29 28 27 27 27 26 26 25 25 25 25 24 22 21 21 21 20 20
30 32 36 39 40 43 47 51 52 53 55 56 56 56 55 53 53 53 52 52 51 50 49 49 49 49 48 48 48 48 46 45 44 43 42 42 41 40 39 37 35 33 32 31 30 29 29 29 29 29 28 27 27 27 27 26 25 24 22 22 22 22 21
34 32 35 38 40 42 43 47 49 48 50 53 54 54 54 53 54 54 54 54 53 52 51 50 49 49 47 46 47 46 45 44 43 42 42 42 42 42 41 39 37 35 34 33 31 30 30 30 31 31 30 30 29 29 28 27 27 26 24 23 23 23 23
32 30 31 32 33 34 33 38 43 44 46 50 52 53 53 53 54 55 55 55 55 54 53 52 51 50 48 46 46 45 44 43 43 42 42 42 43 43 42 40 38 36 35 34 33 31 31 31 31 32 32 32 31 31 30 29 28 28 27 25 24 24 25
30 29 28 25 25 28 29 33 38 41 45 48 50 51 52 53 55 55 55 55 56 55 54 53 53 52 50 48 47 46 45 45 44 43 43 44 44 43 42 41 39 37 36 35 34 33 32 31 32 33 34 34 33 33 32 31 30 30 29 27 26 26 26
26 26 25 24 25 27 28 31 35 40 44 46 48 50 51 53 55 55 55 56 55 54 54 54 54 54 52 50 49 49 48 47 46 46 46 45 45 43 42 41 40 39 37 36 36 35 33 32 34 35 36 36 36 35 34 33 32 31 30 29 27 27 27
21 20 20 23 26 26 27 30 33 38 42 45 47 49 51 52 53 54 55 55 55 54 54 54 54 54 53 52 51 51 50 49 48 48 48 47 46 44 42 41 41 40 38 37 37 36 34 34 35 37 38 38 37 37 36 35 34 32 31 30 29 28 28
18 17 18 19 22 24 26 29 32 36 40 43 46 49 50 51 52 53 54 54 54 53 53 54 54 54 54 52 52 52 51 50 50 49 49 48 46 45 43 42 42 41 39 38 38 38 36 35 36 39 40 39 39 38 37 36 36 34 32 31 31 30 29
14 14 15 16 18 22 25 29 32 34 37 40 44 46 48 50 51 52 52 53 52 53 53 53 53 54 53 52 52 52 51 51 50 49 49 49 47 46 45 44 42 42 40 39 40 40 38 36 37 39 40 40 40 39 39 38 38 36 34 33 32 32 31
11 11 12 14 16 20 23 26 29 32 34 37 40 44 46 48 49 50 51 51 52 52 53 53 53 53 52 52 52 52 51 51 51 50 50 50 49 48 47 46 44 42 42 41 41 41 40 38 37 38 40 41 41 41 41 40 40 39 37 35 34 33 33
10 12 16 17 17 19 21 22 24 28 32 34 38 41 44 46 48 49 49 50 51 52 52 53 53 51 51 52 52 51 51 51 51 51 51 51 50 49 48 47 45 44 43 42 41 42 42 40 39 39 40 41 42 42 43 43 43 41 38 36 35 35 34
18 21 24 23 19 17 18 19 21 24 28 33 36 39 42 44 46 47 48 49 50 50 51 52 52 51 51 52 52 51 51 50 51 52 52 51 51 50 49 47 46 45 45 43 42 43 43 42 41 40 39 40 42 43 45 45 44 42 39 37 36 36 36
24 27 29 27 22 18 18 18 18 20 23 28 33 37 40 42 44 46 47 48 48 48 50 51 51 51 51 51 51 51 50 50 52 52 51 51 51 50 49 48 47 46 45 44 43 43 44 43 43 41 40 41 42 44 46 47 45 43 40 38 37 37 37
27 30 30 29 26 23 21 19 18 18 20 24 29 33 36 39 43 45 45 46 46 48 50 51 50 50 50 51 51 51 50 51 52 52 52 51 51 50 49 49 49 48 47 45 44 44 44 44 43 42 42 42 43 44 46 47 46 44 42 39 38 38 38
29 29 28 26 26 25 24 21 20 19 18 20 24 29 33 37 39 40 42 44 46 47 49 49 49 49 50 51 51 51 51 51 51 52 52 52 50 50 50 50 49 48 47 46 45 45 46 45 44 44 43 43 43 43 45 47 47 45 43 41 39 39 38
26 25 23 24 25 26 26 24 23 23 20 17 20 26 31 34 36 38 41 44 45 45 46 47 49 49 50 51 51 50 51 51 51 51 51 51 50 50 50 50 49 48 48 48 47 47 46 45 45 45 45 44 43 43 44 46 47 46 44 42 41 40 38
22 22 22 24 25 26 27 26 25 25 21 16 16 23 28 30 33 37 40 42 43 44 45 46 47 47 49 51 51 50 51 50 50 50 50 49 49 50 50 50 50 49 49 48 47 47 46 46 46 47 46 45 44 44 45 45 45 45 44 43 41 40 39
21 22 22 23 24 26 26 25 24 23 20 15 15 20 23 27 31 36 39 41 41 42 43 45 46 46 48 49 50 50 50 49 49 49 49 49 49 50 50 50 50 49 48 48 48 48 48 48 48 48 47 47 45 45 45 45 45 45 44 43 42 41 41
19 20 20 21 23 25 25 23 21 19 16 14 14 15 19 23 28 33 36 39 40 40 42 44 44 44 46 48 48 48 47 47 47 47 48 49 49 49 49 49 49 48 47 47 48 48 48 48 49 48 48 48 47 46 45 45 44 43 44 43 42 41 42
15 16 17 18 20 21 20 18 16 14 12 11 10 11 15 19 23 28 32 34 37 39 41 41 41 41 44 46 44 43 42 43 45 46 48 48 48 48 48 48 47 47 47 47 48 48 47 48 49 49 49 48 48 47 46 45 44 43 44 43 42 42 41
10 10 11 12 13 13 13 11 10 9 8 8 8 9 12 15 19 24 28 31 34 37 37 36 37 40 42 42 40 40 40 41 44 46 46 46 45 46 46 46 45 45 46 47 49 49 49 49 49 48 48 49 49 48 47 46 44 44 44 43 42 42 41
9 8 7 6 6 6 8 8 8 8 8 8 9 10 11 13 16 20 23 27 31 33 33 33 35 37 38 38 39 40 41 42 43 44 44 44 44 44 44 44 44 45 46 47 49 51 52 53 52 48 48 49 49 48 48 47 45 44 44 43 43 42 41
10 10 10 9 7 6 7 8 9 10 10 10 10 11 12 11 12 14 18 22 25 26 27 28 30 32 34 35 37 39 39 40 41 42 42 42 43 44 44 44 44 46 48 48 49 50 50 50 49 47 48 51 50 48 48 47 44 44 44 43 43 43 41
10 12 13 14 12 10 9 9 9 9 9 10 10 11 12 12 11 11 14 17 19 21 22 23 24 27 29 31 33 34 36 37 38 39 40 40 41 42 44 44 45 47 48 48 50 51 48 46 45 41 42 49 51 49 48 47 44 44 45 44 43 43 41
6 10 14 16 16 15 14 13 12 11 10 9 9 10 11 12 11 12 13 15 17 18 20 21 23 25 26 28 30 31 34 35 36 38 39 40 40 41 43 45 46 46 48 48 49 50 48 46 43 40 39 44 46 44 44 46 46 45 46 46 44 43 41
3 7 12 15 16 17 17 16 16 15 13 12 11 10 10 10 10 11 12 13 14 15 16 17 20 22 24 25 26 28 31 33 34 36 37 38 39 40 42 44 45 46 48 48 48 49 47 44 46 49 49 48 46 44 44 47 49 49 48 47 45 43 40
3 5 8 11 14 15 16 17 16 15 15 15 13 12 11 9 8 8 8 9 10 11 11 13 15 18 20 21 22 24 26 29 31 33 34 36 37 39 41 43 45 46 47 47 48 49 50 49 50 52 53 54 54 51 47 46 47 49 49 47 45 44 41
5 6 6 8 10 11 13 15 14 14 15 14 13 13 11 10 9 7 6 6 6 7 8 9 10 12 14 16 18 20 22 24 26 28 30 32 34 37 39 41 43 45 46 47 48 49 52 53 50 47 50 55 53 50 48 49 50 51 51 49 47 46 43
7 6 6 6 8 10 13 14 13 13 13 12 12 11 10 9 9 7 7 6 5 6 6 7 8 9 10 12 14 16 18 21 22 24 27 30 31 34 37 40 42 44 46 47 48 49 51 51 49 48 51 52 46 43 48 55 56 56 56 52 49 49 47
9 8 7 7 8 11 14 15 14 13 13 13 13 11 10 9 8 7 6 6 5 6 6 7 8 9 10 11 13 15 17 18 20 22 25 28 30 32 35 37 38 39 41 44 46 49 50 50 50 50 50 49 46 48 54 60 60 60 59 54 51 50 48
13 12 10 9 10 14 16 17 16 15 15 15 15 13 11 10 8 7 6 5 5 5 6 7 8 10 11 12 13 15 16 17 18 20 22 25 28 30 33 35 36 36 38 40 42 45 48 50 51 52 51 51 54 57 60 61 61 61 59 55 52 49 47
17 17 15 14 14 16 18 19 18 17 17 17 16 14 12 11 10 8 7 6 5 5 5 6 8 9 10 11 12 13 14 14 15 16 17 19 22 25 28 31 33 35 39 42 43 46 48 49 51 52 53 55 58 60 61 60 61 60 57 53 51 48 46
20 20 20 19 19 19 19 19 19 18 17 16 14 13 12 12 11 10 9 9 8 6 5 4 4 6 7 8 8 9 9 9 8 9 11 12 13 16 18 20 23 25 28 32 36 40 44 49 52 55 56 57 59 61 62 61 61 61 57 49 46 47 48

ECMWFFLT1_850_spd_036.txt.gz
Wind_Speed
23 25 27 28 29 31 33 35 37 39 40 40 42 42 41 41 43 44 46 47 46 46 45 44 44 43 42 41 40 39 39 38 37 38 38 37 36 35 34 33 32 30 29 28 28 27 26 26 25 25 24 23 23 22 21 21 20 17 15 14 14 14 13
23 24 27 28 30 32 33 34 36 38 40 42 43 43 42 43 44 46 47 47 47 46 46 45 45 45 44 43 42 41 40 38 37 38 38 37 37 37 35 35 33 32 30 28 28 27 27 27 26 26 24 22 22 22 22 21 20 18 17 17 17 15 13
23 24 26 29 31 32 33 34 35 37 40 42 43 44 45 44 45 46 47 47 47 46 46 46 46 45 45 45 44 43 42 39 37 38 38 38 38 37 36 36 35 33 32 30 29 28 28 28 27 27 26 23 22 21 22 22 21 20 19 19 18 15 13
22 24 26 29 30 30 31 33 35 36 38 41 45 46 45 45 44 44 45 46 46 46 47 47 47 46 46 46 45 44 44 42 39 39 40 39 38 36 35 35 35 34 33 32 31 31 30 29 29 29 29 27 24 22 22 23 22 20 19 19 19 16 14
23 23 23 26 27 28 30 33 35 37 38 42 46 48 46 44 44 43 44 44 45 46 46 46 46 46 46 46 46 45 45 45 43 41 39 37 37 37 35 34 34 33 33 32 32 32 31 30 30 30 31 30 28 26 25 24 23 22 21 20 21 19 16
22 22 23 24 26 28 31 34 36 37 38 39 42 46 46 44 44 44 43 43 44 45 45 45 45 46 46 46 47 47 46 46 45 44 41 37 38 38 36 35 34 33 32 31 31 31 32 31 31 31 32 31 29 28 27 26 24 23 23 22 22 22 18
20 22 25 26 27 29 31 32 34 34 34 34 34 37 40 41 44 44 43 43 44 44 45 45 45 45 46 46 47 47 47 47 46 45 44 41 40 39 38 37 36 34 33 32 31 31 32 32 32 32 32 32 31 30 29 27 26 24 24 25 24 24 23
17 18 21 23 24 25 26 27 28 29 29 30 31 33 36 38 40 41 43 44 43 44 44 44 45 45 45 46 46 46 47 47 47 46 44 43 42 41 41 39 38 36 35 34 33 31 32 32 33 34 34 33 32 32 31 29 27 26 26 27 26 25 26
12 13 15 16 17 18 19 20 22 25 27 30 33 34 35 36 38 40 43 43 41 43 44 44 44 44 44 44 44 44 45 45 46 46 45 44 44 43 42 41 39 37 37 36 35 34 33 33 34 35 36 35 34 34 33 31 29 28 27 28 28 26 26
8 9 11 12 14 15 16 17 20 25 29 33 35 36 35 36 38 40 42 41 41 43 46 45 43 44 44 43 43 43 44 44 44 45 45 45 45 45 44 42 40 39 38 37 37 37 35 34 34 36 37 37 37 36 35 33 31 30 29 29 30 28 27
4 7 8 11 13 14 17 19 21 26 31 34 37 37 36 37 38 39 42 43 43 44 46 45 44 44 45 43 42 43 43 43 43 44 45 45 45 45 44 44 43 42 40 39 39 39 38 36 35 36 38 38 38 37 37 36 34 33 32 32 31 30 29
3 5 6 8 11 14 17 20 22 26 29 33 35 35 36 38 38 37 39 41 42 42 43 43 43 45 46 46 45 44 43 43 43 43 43 44 44 43 43 43 43 43 42 40 39 40 40 39 38 37 38 39 38 38 38 37 37 36 35 34 33 32 31
3 6 7 6 9 11 13 17 20 24 27 30 32 32 34 37 36 35 36 38 39 39 39 40 42 45 47 47 48 47 46 45 44 43 43 43 43 42 41 41 42 42 42 40 39 39 40 41 39 38 38 39 38 38 38 38 38 38 37 36 35 35 33
6 6 7 5 5 6 8 12 17 21 25 27 29 30 32 33 34 35 36 36 36 36 36 37 40 44 46 48 49 50 50 48 46 45 45 44 44 42 41 41 41 42 42 41 39 39 39 40 40 39 38 39 39 39 39 39 40 40 40 38 37 37 36
10 6 7 5 3 3 6 10 13 17 22 25 27 29 31 32 33 35 37 38 37 36 36 36 39 43 46 48 50 51 50 49 48 47 46 47 47 45 43 43 43 43 43 43 41 40 39 39 39 39 39 38 39 39 40 41 42 42 42 41 40 39 38
14 9 6 5 6 6 10 12 12 13 16 21 26 29 31 32 34 36 38 38 38 38 37 36 38 43 46 48 49 50 50 49 48 47 47 48 48 47 46 45 45 45 45 45 44 42 41 40 40 40 40 39 39 39 41 42 44 45 44 43 41 40 40
16 14 12 10 7 8 15 18 16 14 13 16 21 27 31 33 34 35 35 34 36 38 38 37 38 43 46 48 48 49 49 49 49 48 48 48 48 48 47 46 46 46 46 46 45 44 43 42 42 42 42 41 40 40 41 43 45 46 45 44 42 41 40
18 17 18 17 13 15 21 22 19 19 17 15 16 21 28 32 34 34 34 34 35 35 35 36 38 43 46 47 47 48 48 48 48 48 48 48 48 48 47 46 47 47 47 47 46 45 44 44 44 43 43 43 42 41 41 43 44 46 46 45 44 42 41
21 21 21 21 18 18 23 23 20 19 19 17 16 17 21 27 31 33 35 35 32 30 30 34 37 41 44 45 46 47 47 46 46 47 47 48 48 48 47 47 47 47 48 47 46 46 46 46 45 44 44 44 44 43 42 43 44 45 46 46 44 43 42
22 22 23 23 21 21 25 28 24 20 19 18 17 16 17 22 26 29 32 33 32 30 32 34 35 38 42 44 45 45 45 44 44 45 46 47 47 47 47 47 47 47 47 47 47 47 47 47 46 46 45 45 46 45 43 43 45 45 46 45 45 44 43
22 22 23 23 23 24 27 29 26 22 20 19 17 16 18 21 23 26 29 31 33 35 37 36 36 37 40 43 44 44 43 42 43 45 45 46 47 46 47 48 47 47 47 47 48 48 47 46 46 47 46 45 45 46 46 45 45 46 46 45 45 44 43
20 20 20 20 21 23 26 27 25 23 22 20 18 17 18 20 21 23 26 28 32 35 37 38 39 39 41 43 43 43 42 41 42 43 44 45 46 46 46 47 46 46 46 46 48 48 46 45 45 47 46 43 42 44 47 46 46 47 46 45 44 43 42
19 19 19 21 24 26 27 27 25 24 22 20 18 16 16 18 19 22 24 26 29 33 35 37 40 42 42 42 42 41 41 41 42 42 42 43 44 44 44 44 44 45 45 46 48 48 47 46 45 45 44 43 44 45 47 46 47 48 46 45 45 44 43
15 17 19 22 25 25 25 26 25 23 21 19 17 15 15 17 18 21 24 26 28 30 32 36 40 42 42 42 42 41 41 41 40 40 40 41 41 41 40 41 42 44 45 46 46 47 47 47 46 45 44 46 47 48 48 47 47 48 47 46 45 45 45
10 13 16 18 19 21 22 23 23 20 18 17 16 14 15 18 19 21 24 27 27 27 31 36 39 40 41 41 42 42 40 37 36 37 38 38 38 38 38 40 41 42 43 45 46 46 46 46 46 47 47 46 44 43 44 43 41 44 47 47 45 44 44
11 14 13 12 14 18 19 18 17 15 13 14 16 14 15 17 19 21 23 25 25 26 30 34 36 37 39 40 41 41 37 34 33 35 35 36 36 38 40 41 41 41 42 42 43 44 45 45 46 46 46 46 42 40 41 39 34 37 44 47 46 45 44
10 11 10 10 14 16 13 11 10 11 12 15 15 14 16 17 18 20 22 22 24 25 25 25 30 34 36 36 37 37 34 33 35 35 35 36 38 40 41 42 41 41 41 41 42 43 43 43 42 39 39 41 40 38 38 36 33 34 40 45 47 47 45
7 7 8 10 11 9 6 6 6 7 10 12 13 14 17 18 17 19 21 20 20 21 20 20 25 30 31 31 32 33 33 34 35 35 36 37 38 40 40 40 41 41 41 40 39 39 37 35 32 30 29 33 35 34 35 36 35 34 37 42 45 47 48
6 7 7 7 6 4 2 3 4 5 8 10 11 13 16 16 16 17 17 17 16 17 18 21 25 26 25 25 27 30 32 33 33 34 35 35 36 37 38 39 40 41 40 37 32 28 26 26 26 27 28 29 30 31 32 34 34 35 39 43 44 46 48
5 5 6 5 4 2 2 2 2 4 7 9 10 12 14 15 15 15 15 17 18 18 19 21 23 23 22 21 23 27 29 30 29 30 31 33 35 36 36 37 39 39 39 38 33 26 24 24 25 27 29 30 30 29 29 31 32 33 39 44 46 47 49
3 3 3 4 3 1 3 3 2 1 1 5 8 11 13 15 15 16 16 17 18 18 18 19 19 18 18 19 20 22 24 25 26 27 28 30 33 34 34 35 36 37 38 36 30 26 25 26 27 27 28 30 31 29 28 30 31 32 35 41 46 48 48
1 1 2 3 2 2 3 3 4 4 4 4 5 7 10 13 14 15 15 15 14 14 15 15 15 15 16 16 17 18 20 21 22 23 25 27 29 30 31 32 33 35 36 32 26 25 26 27 27 27 27 28 28 27 27 29 31 32 34 39 44 45 45
0 2 2 2 3 3 4 4 5 5 7 7 6 5 5 8 10 11 12 12 13 13 13 13 14 13 14 14 15 16 18 18 19 19 21 23 26 26 27 29 29 31 31 28 26 27 26 24 25 27 27 28 28 28 29 30 31 32 35 39 44 44 44
1 3 3 3 3 3 5 6 6 7 8 8 7 7 6 6 6 7 7 9 10 10 9 11 13 12 12 13 13 12 14 15 17 17 17 18 20 21 21 22 23 24 25 24 24 26 26 24 26 27 27 28 29 31 32 32 33 33 35 39 44 45 44
1 3 3 3 3 4 5 6 7 8 8 7 7 6 6 6 6 6 5 6 7 8 9 11 12 10 10 10 10 9 11 12 13 14 14 14 15 16 17 18 19 21 21 21 22 25 27 28 29 27 26 28 30 32 34 35 35 35 35 38 43 44 43
3 4 4 5 5 6 6 6 7 7 8 7 6 6 7 7 6 6 5 5 5 6 8 11 11 10 9 8 7 8 10 10 9 9 11 12 12 12 14 16 18 21 22 22 23 25 27 28 29 29 30 32 34 35 36 37 38 39 38 40 44 47 47
6 6 6 6 7 7 7 7 7 7 7 7 7 7 7 6 6 5 5 5 5 5 6 8 9 9 8 8 8 8 8 8 6 6 7 8 10 11 13 14 14 16 19 22 25 26 27 28 30 31 32 35 38 40 42 44 45 47 47 47 49 51 52
8 8 8 8 9 8 8 7 7 7 8 8 7 7 7 6 6 5 5 4 5 5 6 7 7 6 6 6 7 8 7 5 4 4 5 4 5 8 10 9 7 7 8 10 13 16 17 18 20 21 23 26 30 35 39 43 46 49 52 54 56 57 57

ECMWFFLT1_850_spd_039.txt.gz
Wind_Speed
22 21 22 24 27 29 31 34 35 36 37 39 40 41 41 40 40 39 40 43 43 42 42 41 42 42 42 41 41 40 39 38 38 37 36 35 34 33 31 31 31 30 28 26 26 26 26 25 23 23 24 22 20 20 20 19 18 17 16 15 14 14 14
24 22 22 24 27 30 32 33 35 36 37 38 39 40 41 41 42 42 42 45 45 44 44 43 43 43 42 42 42 41 40 40 39 38 38 37 36 35 34 33 33 32 31 28 26 26 27 27 26 26 26 24 20 20 20 19 18 19 19 18 17 17 17
26 24 25 26 28 31 32 34 35 37 37 38 39 40 42 44 46 45 45 46 46 46 45 44 44 43 43 43 42 42 42 41 40 39 39 38 37 36 35 34 34 34 33 31 29 27 27 27 28 28 28 26 23 21 20 19 19 20 21 20 19 19 19
28 27 26 26 29 31 32 34 35 36 36 37 39 40 43 46 47 47 46 47 47 47 46 45 45 44 44 44 44 44 43 42 42 41 40 39 38 37 35 35 35 35 34 33 31 30 27 27 28 28 29 28 27 25 22 22 21 21 21 20 19 20 20
29 29 27 26 27 28 30 33 35 36 37 38 39 39 41 43 44 45 46 47 47 47 47 46 46 45 45 45 45 45 44 43 43 42 41 40 38 38 37 36 36 36 36 34 33 32 31 29 29 29 29 29 29 28 26 25 23 22 22 21 20 20 21
27 27 25 25 24 26 30 33 36 38 38 37 38 37 37 38 40 42 44 45 45 46 46 46 47 46 46 46 46 46 46 44 44 43 43 41 40 39 39 38 37 36 36 36 35 34 33 33 32 31 31 30 29 29 28 28 27 25 24 23 22 21 21
24 24 24 24 26 30 32 33 34 35 34 33 34 35 36 37 39 39 40 43 44 45 45 46 47 47 47 47 47 47 47 45 45 44 44 43 42 42 41 39 38 37 36 36 36 35 34 34 34 33 33 32 31 29 28 29 30 28 26 25 24 23 22
23 25 26 27 27 27 27 28 30 30 30 31 32 34 36 36 37 38 39 40 42 43 44 46 47 48 48 47 47 48 47 47 46 45 45 44 44 44 43 41 40 38 37 37 37 36 35 35 34 34 34 33 33 32 30 30 31 30 29 27 26 25 24
23 25 26 26 25 22 22 24 26 28 30 31 31 33 35 35 37 38 39 39 39 41 43 44 45 47 48 48 48 48 48 48 47 47 46 45 45 45 44 43 41 40 39 38 37 36 35 35 34 34 34 33 33 33 32 31 33 32 31 30 29 27 26
20 21 19 18 19 20 22 23 24 26 28 30 31 32 34 36 36 38 38 38 39 40 42 42 42 44 47 48 48 48 48 48 48 48 47 47 46 46 45 43 42 42 41 39 37 35 34 35 35 34 34 33 33 34 33 33 34 34 33 33 32 30 28
12 14 13 12 13 16 18 21 24 27 29 32 34 33 33 35 35 36 38 39 40 40 40 40 40 41 45 48 48 48 49 49 49 49 49 48 47 47 46 44 41 40 41 42 40 35 33 35 36 35 35 35 34 35 35 35 35 36 35 34 33 32 30
9 9 10 11 13 14 16 19 23 28 30 32 32 30 31 34 34 34 36 38 39 38 39 39 39 40 43 45 47 48 49 50 50 50 49 49 48 46 45 43 40 37 37 40 42 38 34 34 36 38 37 36 35 35 37 37 37 37 37 35 34 34 33
7 8 9 10 12 13 14 17 19 23 26 27 27 27 29 31 32 32 34 36 37 36 37 39 39 39 41 42 44 46 47 49 49 49 49 48 47 46 43 41 39 36 35 36 39 40 37 34 35 39 39 38 37 37 37 38 39 39 38 37 36 35 35
7 10 11 11 13 14 14 17 18 20 23 24 24 26 27 28 30 32 33 34 34 34 35 37 38 39 40 40 43 44 45 46 46 46 46 46 45 44 43 40 38 37 36 35 36 39 38 35 34 37 40 40 39 39 39 39 40 40 40 40 39 38 37
5 11 13 12 12 13 13 14 14 17 21 23 23 25 26 27 28 30 31 31 32 33 33 35 37 39 39 40 43 45 44 44 44 44 43 43 43 43 42 41 40 39 37 36 35 36 37 35 34 34 38 40 41 40 40 41 42 42 42 42 41 40 39
2 7 13 13 11 11 11 11 10 10 15 20 23 25 26 26 27 28 29 29 30 32 33 33 36 38 39 40 45 46 44 42 42 42 42 42 43 43 42 42 42 41 39 38 37 36 36 36 34 33 35 38 41 41 41 42 44 45 45 44 43 42 41
4 4 7 8 8 8 9 10 9 7 8 14 19 23 26 27 27 26 27 28 30 31 32 32 34 37 38 39 42 44 45 45 44 44 44 43 43 43 43 42 42 41 40 39 38 38 37 37 36 35 34 35 39 41 42 43 45 45 46 45 45 44 43
6 6 6 6 6 5 4 7 10 8 7 9 14 18 22 24 25 26 26 27 28 29 30 32 33 35 38 38 38 40 44 47 47 46 47 46 45 45 45 44 43 42 41 41 40 40 39 39 39 39 36 35 36 39 42 43 44 45 46 46 46 45 44
8 8 8 8 7 7 6 6 6 6 5 7 11 15 17 19 23 26 27 26 26 27 29 32 33 35 37 38 37 39 43 46 47 47 48 48 47 46 45 45 45 44 44 43 42 41 42 42 42 42 41 38 37 38 41 43 43 44 44 44 45 45 44
9 9 8 8 8 9 8 7 6 6 7 7 8 11 13 16 20 23 24 25 26 28 30 32 33 33 35 38 39 40 43 45 46 46 47 47 46 46 45 45 44 44 45 44 43 43 44 45 45 44 44 43 41 40 41 43 43 44 44 43 43 43 44
9 9 10 9 9 7 6 6 6 7 7 6 6 8 11 14 17 19 22 24 27 29 31 32 33 33 34 37 40 41 43 45 46 45 45 45 45 45 44 44 43 43 44 44 44 45 45 46 46 46 45 45 45 43 43 43 44 44 45 44 43 42 42
11 10 10 9 6 5 4 7 9 8 8 9 8 8 9 12 15 18 21 24 26 29 31 32 33 34 34 37 41 43 44 45 45 45 44 44 44 43 43 43 42 43 43 42 42 44 44 45 46 46 45 45 46 46 45 45 45 46 46 46 44 43 42
15 12 9 7 6 6 9 12 13 12 13 14 13 11 11 11 14 18 20 23 26 29 30 32 34 37 37 37 40 43 45 45 44 44 43 43 43 43 42 42 42 42 42 42 42 43 45 44 44 45 45 45 46 47 47 46 45 46 48 47 45 44 44
8 5 6 6 8 9 9 9 9 10 13 14 14 13 12 12 14 17 21 23 26 28 30 32 36 39 39 39 39 41 43 44 43 43 42 43 43 42 42 41 41 41 41 41 43 44 44 42 41 42 42 42 44 45 45 44 42 44 48 48 46 44 44
8 7 8 9 9 9 9 11 13 14 14 13 13 13 13 14 15 17 21 23 24 26 30 34 36 38 39 39 37 38 40 41 42 42 42 42 42 41 41 40 40 40 40 41 42 42 40 38 37 36 35 36 39 42 42 41 39 39 43 45 45 44 44
11 10 10 9 9 10 13 14 14 11 9 9 11 11 11 13 14 17 20 22 23 26 29 32 33 34 36 36 35 36 38 38 39 40 40 39 39 39 39 38 38 38 39 39 38 37 36 34 34 34 34 35 37 39 41 41 40 39 41 42 43 44 44
9 9 9 9 11 14 13 10 9 8 6 9 13 13 10 11 13 17 19 21 23 25 25 26 28 30 32 33 34 35 37 38 38 38 36 35 35 36 37 38 38 38 39 38 34 32 33 33 32 31 32 33 34 35 36 38 38 39 40 42 42 43 43
9 9 9 9 11 12 10 8 7 7 5 6 8 8 9 10 12 15 17 20 22 22 20 20 25 28 29 31 32 33 35 37 37 35 34 34 34 35 35 36 36 36 37 35 32 31 32 32 31 30 29 29 30 31 32 33 32 34 37 39 41 42 43
8 9 9 9 9 9 8 7 6 5 5 5 6 6 6 8 10 13 15 16 17 17 17 17 21 25 27 28 29 31 33 34 34 33 33 33 33 33 33 34 33 33 33 33 31 30 30 29 29 29 26 25 27 29 30 30 30 31 34 37 38 40 43
8 8 8 7 7 7 6 6 5 4 5 8 10 10 7 6 9 11 12 12 13 14 16 16 17 21 24 25 26 28 29 30 30 29 28 28 29 30 30 30 29 29 30 29 26 26 26 25 25 25 24 24 26 28 29 28 28 30 33 36 37 39 41
9 8 7 6 7 7 5 4 4 4 4 6 7 8 8 7 7 9 11 13 14 12 13 14 15 17 19 21 22 23 23 22 23 23 23 23 23 25 26 25 25 25 26 24 21 21 23 23 23 24 24 24 25 27 27 27 27 29 32 35 38 39 40
8 8 7 7 7 6 4 3 4 4 3 3 4 2 6 8 7 9 11 12 13 14 13 12 12 14 15 16 17 18 19 18 18 19 19 19 19 20 21 21 21 21 22 21 20 21 22 21 21 22 24 25 25 25 25 25 26 27 29 32 35 36 37
8 7 7 7 7 5 3 4 3 1 1 1 3 2 2 4 4 5 5 5 8 13 15 13 11 11 12 13 13 14 16 16 15 15 16 17 17 17 17 17 17 18 18 17 18 19 20 21 21 21 22 23 24 23 23 24 24 24 25 27 32 34 34
7 6 6 5 5 3 2 2 1 2 2 2 3 3 3 3 3 3 3 4 4 6 10 12 11 9 9 10 10 11 13 14 14 13 14 15 15 15 14 14 14 14 15 15 17 18 19 19 19 19 20 20 21 22 22 23 23 23 22 24 27 30 32
6 6 6 5 3 2 1 0 2 3 3 2 2 3 4 4 3 3 2 4 6 7 8 8 9 8 8 9 9 9 9 11 12 12 11 12 13 13 13 14 13 13 15 17 20 21 20 19 18 17 17 17 17 18 19 20 21 21 22 23 24 24 27
5 5 5 4 3 1 1 2 2 2 3 3 5 5 6 5 4 5 5 3 5 10 12 12 12 11 9 8 8 8 8 8 9 10 10 10 11 12 14 15 15 15 15 16 17 19 20 20 19 18 18 18 19 20 20 22 24 25 26 27 27 27 28
3 3 2 2 1 1 1 2 3 3 3 4 5 5 5 5 5 5 6 6 5 5 8 12 14 13 12 12 12 11 10 9 9 10 10 9 9 10 12 12 14 16 17 17 16 17 18 20 21 22 23 24 25 26 27 28 30 31 33 35 36 37 38
1 2 1 1 1 1 1 2 2 2 3 3 4 4 4 5 5 5 6 7 7 6 6 7 8 7 7 10 13 12 10 11 12 12 11 11 9 8 8 9 9 12 15 16 17 18 18 18 19 20 21 22 23 25 26 28 30 31 33 35 37 39 40

ECMWFFLT1_850_spd_042.txt.gz
Wind_Speed
30 35 38 34 35 37 37 39 39 39 40 41 45 47 45 45 46 46 47 48 47 46 45 44 43 43 43 42 40 39 38 37 36 35 34 33 33 32 31 30 29 28 27 26 26 25 24 23 21 20 20 20 18 19 19 18 17 15 15 14 14 15 15
30 33 41 40 39 42 42 40 38 38 39 40 44 46 45 45 47 48 48 48 48 46 45 44 43 43 43 42 41 40 39 38 37 36 35 34 34 33 33 32 31 30 28 27 26 24 24 24 23 21 21 21 19 18 19 18 18 17 17 16 15 16 15
33 31 37 41 42 44 44 44 42 42 43 44 46 47 47 48 49 50 49 49 49 47 45 44 44 43 43 42 41 40 40 39 39 38 37 36 36 35 34 33 32 31 30 28 27 25 24 24 24 23 23 24 22 20 19 19 19 19 19 18 17 18 17
38 33 32 37 41 43 43 45 46 45 46 47 49 49 49 49 49 49 49 48 49 48 47 45 44 44 43 43 42 41 41 40 40 39 39 38 37 36 36 35 34 33 31 30 29 27 25 24 24 24 25 26 25 23 21 20 20 20 20 20 20 20 19
40 35 32 32 38 42 41 41 43 44 43 44 46 48 47 46 45 45 46 47 48 47 46 45 45 45 45 44 43 42 42 41 41 41 40 40 39 37 37 36 35 34 33 31 30 29 28 26 25 24 25 26 27 26 24 22 21 21 21 22 22 21 21
38 34 32 31 34 40 39 37 39 40 38 39 42 44 43 41 42 42 42 44 47 46 45 46 46 46 46 45 44 44 43 42 42 42 42 41 40 39 39 38 36 36 34 33 31 30 29 28 27 26 26 27 27 27 27 25 24 24 23 23 23 22 22
37 34 33 34 33 36 36 34 35 36 36 36 38 39 40 40 41 40 39 41 44 46 46 47 47 47 46 46 45 45 44 44 43 43 43 42 41 40 39 39 38 36 35 33 32 31 30 30 30 29 28 27 27 28 28 27 27 27 26 26 25 24 23
37 36 34 34 34 35 35 34 32 32 34 35 37 38 39 40 40 40 39 39 41 43 45 47 47 47 47 46 46 46 45 45 44 44 44 43 43 42 41 39 38 37 35 33 33 32 31 31 31 31 30 29 28 28 28 27 27 28 28 28 28 27 25
35 40 35 32 34 34 34 34 33 31 29 32 38 40 39 39 40 41 41 39 39 41 44 45 46 47 47 47 47 47 46 46 45 45 45 45 44 44 42 41 39 38 36 35 33 33 33 32 31 32 32 31 30 30 29 29 29 28 29 29 29 29 28
32 40 34 30 32 33 33 34 35 35 32 34 39 41 40 40 40 40 41 40 40 41 42 43 44 45 46 47 47 47 47 46 46 46 46 46 46 45 43 43 42 40 39 37 36 34 33 33 32 32 33 32 32 32 31 31 31 31 31 31 31 30 29
33 41 35 29 28 32 35 34 34 37 37 37 40 39 39 40 39 39 40 41 40 40 40 41 41 42 45 46 47 48 48 48 47 47 47 47 46 45 44 44 43 42 40 39 38 35 34 33 34 33 34 34 33 33 34 33 33 34 34 34 34 33 32
30 37 36 30 26 29 31 30 30 31 32 36 38 37 38 39 37 37 38 39 39 38 39 40 40 40 42 45 47 47 48 49 48 48 48 47 46 45 44 44 43 42 41 40 39 37 35 35 35 35 35 35 35 35 35 35 35 35 36 35 36 36 34
23 26 29 26 24 28 30 28 28 28 30 37 39 36 36 37 36 36 37 38 37 36 37 39 39 40 41 42 44 46 47 49 48 48 48 47 46 44 43 43 43 41 40 40 39 38 37 36 36 37 37 37 36 36 36 36 36 36 36 36 36 36 36
21 20 21 18 17 24 28 26 26 30 34 38 38 35 34 34 34 35 35 36 36 35 36 38 39 40 41 40 42 43 46 47 47 47 47 46 46 44 42 42 41 40 38 37 38 38 38 37 36 37 38 38 37 37 36 36 37 37 37 38 37 36 36
20 18 17 16 13 19 25 23 23 29 33 35 35 34 33 32 33 35 35 34 35 35 35 36 39 40 41 41 42 42 44 45 45 46 46 46 46 45 44 42 41 40 39 38 37 37 36 36 35 35 37 37 38 38 37 37 38 38 38 38 39 38 37
20 19 17 16 15 19 24 22 21 26 29 30 32 32 31 32 33 34 34 33 34 35 35 35 38 40 41 42 43 42 42 43 43 44 45 46 46 46 45 44 42 40 40 40 39 37 36 35 34 35 36 37 37 38 38 39 39 40 40 40 39 39 39
17 24 23 21 19 21 24 22 21 24 26 28 30 30 30 31 31 32 32 32 33 34 34 34 37 41 42 42 42 42 41 42 43 43 43 45 45 46 45 45 44 42 41 41 40 39 38 37 36 36 36 36 38 39 39 40 40 40 40 40 40 40 40
8 15 22 24 24 23 22 23 23 23 24 26 28 29 30 30 29 29 30 31 31 32 33 34 37 40 43 42 41 42 42 42 42 42 43 43 44 45 45 45 44 44 43 42 42 41 41 40 39 38 37 37 38 39 40 40 40 40 40 40 40 40 40
3 2 9 17 20 20 19 21 23 21 20 21 23 25 27 28 28 29 29 29 30 30 32 35 36 38 42 43 43 43 43 43 43 43 43 43 43 43 44 45 45 45 45 44 43 42 43 43 42 41 39 39 39 40 40 40 40 40 39 39 39 39 39
3 4 3 5 7 9 9 13 17 15 13 15 17 19 23 24 26 28 28 27 29 31 33 35 35 36 39 43 44 44 43 43 43 44 44 43 43 43 43 45 45 45 45 44 43 44 45 45 44 43 42 41 41 42 42 41 41 41 40 39 38 37 38
6 6 5 5 2 4 7 10 11 7 5 8 10 13 18 22 22 25 26 27 29 31 32 34 36 35 36 40 44 44 43 43 43 43 43 43 43 43 43 44 45 45 45 45 44 45 46 46 46 45 44 43 43 44 44 44 44 43 42 41 40 38 38
4 8 10 6 5 9 8 7 6 3 3 7 8 7 12 18 20 22 24 25 28 30 32 33 35 37 36 38 42 44 43 43 43 43 43 43 43 44 44 45 45 44 44 45 44 44 45 46 46 46 46 45 44 45 46 45 46 45 45 45 43 40 40
8 4 1 5 11 11 5 2 2 2 4 7 8 7 8 12 16 19 22 24 25 28 30 31 34 38 38 37 39 43 43 43 43 43 42 43 44 45 46 46 45 44 44 44 44 44 44 45 46 46 46 46 45 46 47 47 46 46 46 46 45 43 42
16 14 13 13 14 10 4 2 2 4 4 4 7 8 10 11 13 15 20 23 24 25 28 31 34 37 40 38 38 40 42 42 42 43 43 43 44 45 45 45 44 43 43 43 44 44 44 43 43 44 46 46 47 47 48 48 47 47 45 44 44 44 44
14 13 13 12 10 5 1 3 4 4 3 4 4 6 8 11 13 14 17 21 23 24 27 31 34 35 38 39 37 37 40 42 42 43 44 44 44 43 43 43 42 42 42 42 43 43 42 41 40 42 43 45 46 46 47 46 46 46 46 44 43 43 44
12 11 11 11 8 5 5 7 7 5 5 5 5 6 5 8 12 15 17 18 20 24 27 29 32 33 34 36 36 35 37 40 41 42 42 42 42 41 40 40 40 39 39 40 41 41 40 40 39 39 39 40 41 42 44 44 43 43 45 45 44 44 44
11 10 10 11 11 10 8 8 6 5 5 6 7 5 3 6 10 15 18 18 19 23 25 25 27 30 32 34 36 36 35 37 40 40 40 39 38 38 38 37 37 37 37 38 38 38 38 38 37 36 35 35 35 36 38 38 38 39 41 41 42 43 43
12 11 11 12 11 9 9 8 7 6 5 6 6 3 2 4 7 12 17 18 18 21 22 21 23 27 31 33 34 35 35 35 37 37 37 36 34 34 35 34 34 34 34 35 34 34 34 35 35 35 34 33 33 33 33 33 34 35 36 37 38 38 39
12 12 12 11 9 9 10 8 6 6 6 7 9 8 6 4 6 9 13 15 16 17 18 18 18 22 28 31 32 35 34 33 34 35 34 33 33 33 32 32 32 32 32 32 31 30 31 32 32 33 33 32 32 32 31 30 31 32 33 33 33 34 35
12 12 10 10 9 10 9 8 6 7 7 8 12 11 8 7 6 5 7 11 13 14 17 16 14 17 25 29 30 32 33 30 30 31 30 30 30 30 30 29 29 29 29 29 29 29 29 29 30 31 32 31 30 29 28 28 28 29 30 30 29 30 30
12 11 10 9 10 10 8 6 7 8 8 7 10 11 5 4 3 1 5 10 11 12 16 16 11 13 21 26 27 29 30 27 26 26 26 26 27 27 27 26 26 26 27 27 28 28 28 27 28 29 29 28 27 25 24 25 25 25 26 26 27 28 28
11 10 10 10 11 11 9 7 7 8 8 6 6 7 4 3 4 3 7 9 9 12 16 15 11 11 18 21 22 24 26 25 24 23 23 23 23 23 24 23 22 23 24 25 26 26 25 25 25 26 26 25 24 23 22 22 21 21 22 23 24 25 26
10 9 9 9 9 9 8 7 6 6 6 4 2 3 5 3 2 3 4 4 6 10 14 15 11 11 16 18 17 18 21 22 22 21 21 22 22 21 21 20 20 21 22 22 23 23 22 23 23 22 22 22 21 21 21 20 18 18 21 23 24 24 24
9 8 9 9 7 6 7 7 5 5 5 5 4 2 2 1 0 2 5 7 6 6 11 15 13 11 13 15 14 15 18 19 19 19 19 20 20 19 19 19 19 20 21 21 21 21 21 21 21 20 20 19 19 18 18 17 18 21 23 25 24 22 23
9 9 9 9 7 6 6 6 5 4 4 4 4 3 1 1 1 1 5 8 9 7 7 12 13 11 12 13 13 14 15 17 18 17 17 18 19 18 20 20 19 20 22 23 22 21 21 20 20 20 19 19 19 18 16 16 19 21 22 22 21 19 18
9 8 7 7 5 4 3 3 3 4 3 3 3 2 1 1 0 1 2 4 7 7 7 10 12 11 11 12 13 14 14 15 17 17 16 19 21 20 20 20 19 19 21 22 23 22 21 19 19 20 20 20 19 18 17 16 16 17 17 18 19 20 20
6 6 5 4 4 3 2 2 3 3 3 2 2 2 1 1 1 3 6 5 6 8 10 12 13 13 14 14 14 16 16 15 17 17 15 16 22 24 23 21 18 15 14 16 18 20 20 19 18 18 18 18 18 18 18 18 18 19 20 22 24 26 27
4 4 3 2 2 2 1 1 1 2 1 1 2 2 1 1 1 4 7 9 9 10 11 12 12 12 15 16 16 17 16 15 18 18 12 10 18 24 25 23 19 14 10 10 11 12 15 16 17 18 18 18 19 19 18 18 18 20 22 24 27 29 31

ECMWFFLT1_850_spd_045.txt.gz
Wind_Speed
45 45 46 45 45 45 46 48 49 49 48 47 48 48 47 46 47 47 48 49 49 49 50 50 50 48 46 44 42 40 40 39 38 38 37 36 35 34 33 31 30 30 30 30 28 26 24 23 21 19 18 18 18 18 18 17 17 16 16 15 15 14 14
45 44 45 45 46 46 47 49 49 50 50 49 50 49 48 47 47 48 48 49 50 50 50 51 52 50 47 45 43 42 41 40 40 39 38 37 36 35 34 33 31 30 30 30 29 28 26 25 22 20 18 18 18 19 19 19 18 18 17 16 16 15 15
45 43 45 46 47 47 48 49 49 50 51 51 51 51 51 50 49 49 48 48 49 49 49 51 52 52 50 47 46 44 43 42 40 40 39 38 37 36 35 34 33 31 30 30 29 29 28 27 24 21 19 18 17 17 18 19 20 19 18 18 17 17 16
44 44 46 46 47 48 47 48 49 51 52 52 53 54 54 52 49 47 47 47 48 48 49 50 52 53 52 50 48 45 44 43 41 40 39 38 37 37 36 36 35 33 31 30 29 29 28 27 26 24 22 20 19 18 17 18 19 19 19 19 19 19 18
42 44 44 43 45 47 47 48 48 49 51 52 53 53 53 51 48 46 46 46 46 47 48 48 50 52 52 51 49 46 43 42 41 40 39 39 38 38 37 37 36 35 33 31 30 29 28 27 26 25 24 23 22 20 19 18 18 19 19 19 20 20 20
41 42 42 43 45 47 48 49 49 48 49 50 51 51 50 50 48 46 47 47 46 46 46 47 49 51 52 52 51 48 45 42 41 40 40 39 39 39 38 38 37 36 34 32 31 30 28 27 26 25 25 24 24 23 22 21 20 19 19 20 20 21 21
43 44 44 45 46 48 48 49 49 49 48 47 48 48 48 49 48 47 48 48 47 46 46 47 49 51 52 52 52 51 49 46 44 42 41 40 40 40 39 38 37 36 35 34 32 31 30 28 27 26 25 25 25 24 24 23 22 22 21 21 21 21 21
45 46 48 48 48 48 48 48 49 49 48 46 45 46 47 48 48 47 48 49 48 46 46 47 49 51 52 53 52 52 50 48 46 44 43 42 41 40 40 39 38 37 36 35 34 32 31 30 29 28 27 27 26 26 25 25 24 24 23 23 23 23 23
44 45 48 49 47 47 48 49 50 49 48 46 45 46 47 47 48 49 49 48 47 46 46 47 48 50 51 52 53 52 51 49 47 46 46 45 44 42 41 40 38 38 37 36 35 34 33 32 31 30 29 29 28 28 27 26 26 25 25 25 25 26 26
41 41 46 49 46 45 48 48 48 49 47 46 47 47 48 49 49 49 48 46 45 45 46 47 48 49 51 52 53 52 52 50 48 47 47 46 45 43 42 41 39 39 38 37 36 35 34 33 32 31 31 31 31 30 30 29 28 27 27 27 27 27 27
45 42 43 48 46 44 47 47 46 48 47 46 47 48 49 50 50 50 47 44 42 43 45 47 49 49 50 51 52 52 52 51 50 49 48 47 46 44 43 42 41 40 39 38 37 36 35 34 33 32 32 33 33 32 32 32 31 30 29 29 29 29 28
48 46 43 47 48 45 46 46 45 46 45 45 46 46 47 48 49 49 45 41 41 41 42 45 47 49 50 51 52 53 53 53 52 51 49 48 46 45 44 43 42 41 40 39 38 37 36 35 35 34 34 34 34 34 33 33 33 32 32 31 31 31 31
45 47 43 46 50 48 47 47 46 45 43 44 46 46 46 46 46 45 42 40 41 41 41 43 45 47 49 50 51 53 53 53 52 51 50 48 47 46 45 44 43 42 41 40 39 38 37 37 36 36 35 35 35 35 35 35 35 35 34 33 33 33 33
41 41 40 44 49 49 48 48 48 47 46 46 46 47 46 45 43 42 41 41 42 42 42 42 42 45 46 48 50 52 53 53 52 51 50 49 47 46 45 45 44 43 42 41 40 39 39 39 38 38 37 37 36 36 36 37 37 37 36 36 35 34 35
34 32 34 40 45 47 47 47 47 48 48 47 46 45 45 45 43 42 42 43 43 43 43 42 42 43 45 46 49 50 51 51 51 51 50 49 48 47 46 46 45 44 43 42 41 40 40 40 40 39 39 39 38 38 38 39 39 39 38 38 37 36 36
27 28 33 37 41 45 46 46 46 46 47 47 44 42 43 44 44 44 44 44 44 44 44 43 43 44 45 46 47 48 48 49 50 50 49 49 48 47 46 46 45 44 43 43 42 41 40 40 40 41 41 40 40 39 39 40 40 40 40 39 38 37 37
24 27 32 35 38 41 42 43 44 43 44 43 42 41 41 42 43 44 43 43 43 43 43 43 43 44 45 46 46 46 46 47 48 49 49 49 48 47 46 46 45 45 44 43 42 41 41 40 40 41 41 41 41 40 41 41 41 41 41 40 39 38 38
22 25 28 31 35 37 37 38 39 37 37 37 37 40 41 40 40 42 43 42 42 41 42 42 43 44 45 45 45 46 46 46 45 47 48 48 48 48 47 46 45 45 44 44 43 42 41 41 41 41 41 41 41 41 41 41 40 40 40 40 40 39 39
21 22 23 27 30 30 30 28 26 27 30 34 37 39 41 40 38 38 39 40 39 39 41 42 43 43 45 46 46 46 46 46 45 45 45 46 46 47 46 46 46 46 45 44 43 43 42 42 41 41 41 41 41 41 41 40 40 39 39 38 38 38 38
20 19 17 19 21 21 22 20 18 20 25 30 34 35 36 37 36 34 35 36 37 38 39 41 42 43 44 45 47 47 46 45 45 44 44 43 43 44 46 47 47 46 45 44 44 44 44 43 42 42 42 42 42 41 41 41 40 39 38 38 37 37 37
18 17 15 16 14 14 18 18 16 16 18 19 23 26 29 31 32 31 31 32 35 36 37 38 40 42 44 45 46 48 48 46 45 44 44 43 42 43 44 45 46 45 45 45 45 45 45 44 44 43 43 43 43 43 43 43 41 40 40 39 37 36 36
26 26 23 20 17 15 17 17 14 13 14 14 14 17 22 26 28 30 29 30 32 34 35 37 39 41 42 43 45 48 49 48 46 44 43 42 42 43 43 44 45 45 45 45 45 45 45 45 45 45 44 44 43 44 45 45 44 43 42 41 40 38 37
28 27 25 23 21 20 19 19 17 15 17 16 12 11 16 21 24 27 28 29 31 33 33 34 38 41 42 42 42 45 48 49 48 46 44 43 43 43 43 43 43 44 44 45 46 46 46 46 46 45 45 45 45 45 46 46 46 45 44 43 41 40 39
24 21 20 18 17 17 15 13 12 12 14 14 12 13 15 16 17 22 26 27 30 32 33 34 36 38 41 42 41 41 44 47 49 47 45 44 43 43 43 43 43 43 43 45 45 46 46 46 46 46 47 47 47 47 47 47 46 46 45 43 40 39 39
23 19 16 14 13 15 14 11 10 10 7 5 9 12 14 13 12 14 20 25 28 29 31 35 37 37 38 40 40 39 40 43 46 47 47 45 44 43 42 42 42 42 42 43 44 45 45 45 46 46 47 47 48 47 48 47 46 45 45 43 40 37 35
21 19 17 14 12 13 12 10 12 12 7 3 4 9 12 14 13 12 13 19 25 29 30 32 34 35 36 37 37 38 37 39 42 45 46 46 44 42 42 41 41 41 41 41 42 42 43 44 45 45 45 46 46 46 46 46 45 44 43 42 41 38 35
17 18 19 15 12 11 10 9 11 10 4 2 4 7 10 14 15 15 13 14 19 26 29 29 29 30 32 34 36 37 36 36 37 40 43 44 43 42 41 41 40 40 39 39 39 39 40 41 43 44 44 43 43 43 43 43 43 42 41 40 39 38 37
16 17 18 14 11 10 9 8 7 4 2 5 6 6 9 12 13 14 13 13 15 20 23 24 26 27 28 30 33 36 36 35 34 35 38 40 41 41 40 40 39 38 37 37 37 37 38 39 40 41 43 42 41 40 40 40 39 39 38 37 37 37 38
17 16 15 13 10 8 7 6 4 2 5 7 8 6 7 11 13 12 11 11 14 16 18 18 19 22 25 28 29 32 35 35 34 33 35 37 39 39 39 38 37 37 36 35 35 35 37 38 38 39 40 41 41 39 38 37 36 35 34 34 33 33 34
15 14 13 10 9 7 4 4 6 6 6 6 7 4 2 5 9 10 10 12 13 15 16 16 15 16 21 26 28 29 31 33 34 33 33 34 37 37 37 36 36 35 34 34 34 34 35 36 37 37 38 38 38 38 36 34 31 29 29 29 29 29 29
12 13 11 8 8 7 3 3 6 7 4 3 2 0 1 2 4 7 10 12 13 13 14 15 15 15 16 20 25 29 30 31 32 32 32 33 34 35 34 34 34 33 32 32 32 33 34 35 35 34 34 34 34 34 33 31 28 26 25 26 27 26 26
9 10 11 10 9 7 4 2 4 4 3 2 2 2 2 2 4 6 8 10 11 13 13 13 14 15 14 15 21 27 30 30 30 30 30 31 31 31 30 31 31 30 30 30 31 32 32 32 32 31 30 29 29 29 28 27 27 26 27 27 27 25 24
11 7 8 10 9 7 5 4 4 5 5 5 4 4 5 4 4 5 6 8 9 11 12 11 12 14 14 14 18 24 28 28 28 27 27 27 27 26 26 26 26 27 27 29 29 30 30 30 29 29 28 27 26 25 24 24 26 27 27 26 26 25 25
11 6 6 8 8 6 5 5 5 5 6 7 6 6 6 6 6 5 6 7 8 9 11 11 10 10 12 13 17 21 23 23 23 23 22 22 22 22 23 22 22 23 26 27 28 28 29 28 27 27 27 26 24 23 23 24 26 26 26 26 25 26 26
10 7 6 6 6 6 5 4 3 4 5 5 5 6 5 6 7 7 6 7 6 6 10 13 11 10 12 13 16 19 20 18 18 18 19 20 21 22 22 22 22 23 24 25 25 25 25 25 25 25 26 25 23 22 23 24 26 26 27 26 25 24 23
10 8 6 5 4 4 5 4 3 4 4 3 5 7 6 6 7 6 5 7 6 5 8 12 13 12 13 14 15 17 18 18 17 17 18 20 21 22 22 22 22 23 23 23 23 23 22 22 22 23 24 23 22 20 20 20 21 22 22 21 20 19 19
9 8 7 5 4 4 5 4 3 4 4 4 5 6 6 7 7 4 4 6 7 7 7 10 12 13 14 15 16 15 16 16 18 19 19 20 21 23 23 23 23 23 21 20 21 21 22 22 21 22 22 22 21 20 19 17 17 16 16 15 15 15 16
9 8 7 5 4 5 4 3 4 5 4 5 6 6 7 8 6 4 4 4 6 8 7 8 11 12 13 14 15 15 14 15 18 20 20 19 22 24 25 25 24 22 19 17 18 18 20 20 20 20 21 20 19 19 18 16 15 15 14 15 15 16 17

ECMWFFLT1_850_spd_048.txt.gz
Wind_Speed
44 44 46 47 48 50 53 55 55 53 54 55 55 54 54 54 54 54 53 52 51 50 49 48 48 48 48 47 46 44 42 41 41 40 39 38 37 35 34 33 31 29 28 27 25 23 22 22 21 21 19 19 19 20 19 18 17 17 17 17 17 15 14
43 45 47 48 48 50 52 54 55 54 55 56 56 56 54 55 55 55 55 53 52 51 50 50 49 49 49 48 47 46 44 43 42 41 40 39 38 37 36 34 32 30 29 28 26 23 22 21 21 20 19 18 18 19 19 19 19 18 17 18 18 17 16
44 44 47 49 50 52 53 54 55 55 56 56 56 56 56 56 56 56 55 55 53 52 51 51 51 50 50 49 49 48 46 45 43 42 40 39 38 38 37 35 33 31 30 29 27 25 24 22 21 21 20 18 17 18 19 20 20 20 19 19 19 18 17
46 46 49 51 52 53 54 55 56 56 56 57 57 57 58 57 57 56 55 54 54 53 53 52 52 51 51 50 50 49 48 46 44 42 40 38 38 37 36 36 34 33 31 30 28 27 26 24 23 23 22 20 18 18 18 20 21 21 20 20 20 20 19
46 48 49 50 50 51 52 54 56 57 57 57 57 57 57 57 56 55 55 54 53 52 51 51 51 51 51 50 50 50 49 47 45 43 40 39 38 37 37 37 35 34 33 31 30 29 27 26 25 25 24 22 21 19 19 19 21 22 22 22 22 21 21
44 46 46 47 48 50 52 54 57 57 57 57 57 57 56 54 54 54 54 53 52 51 50 50 50 50 50 50 50 50 49 48 46 44 42 40 39 39 38 38 37 36 34 33 32 31 29 27 26 26 25 24 23 22 21 20 20 21 22 23 23 23 22
45 45 45 48 49 50 52 54 56 57 56 56 56 55 54 53 53 53 53 53 52 51 51 50 50 49 49 49 50 50 50 49 47 45 44 43 42 41 40 39 38 37 35 34 33 32 31 29 27 26 26 25 24 23 23 23 22 21 22 23 23 23 23
46 47 48 49 49 50 52 53 54 55 54 53 53 53 53 53 53 53 53 53 52 51 51 51 50 49 48 47 48 50 50 50 48 46 45 45 44 43 42 41 39 38 37 36 34 33 32 31 29 28 27 26 26 25 25 24 24 24 24 24 24 24 24
47 49 52 51 50 51 52 53 54 53 53 53 52 52 52 52 53 52 53 52 52 51 51 50 49 48 47 46 46 48 49 49 49 47 46 46 46 45 44 43 41 39 38 37 35 34 33 32 31 29 29 28 27 27 27 26 26 26 26 25 25 25 25
46 49 51 51 51 51 51 51 52 52 53 52 51 51 52 52 53 52 52 52 51 51 51 50 49 48 47 46 45 45 47 48 48 48 47 47 46 46 44 43 42 41 40 38 37 36 34 33 33 31 31 30 30 29 29 29 28 28 28 27 27 26 26
47 49 49 49 49 48 48 48 49 51 52 52 52 51 53 53 53 51 51 50 50 50 50 49 49 48 47 46 45 45 46 47 47 47 48 47 46 46 45 44 43 43 41 40 39 38 36 35 35 34 33 32 32 31 31 31 30 29 29 29 28 28 27
46 47 47 48 47 45 46 47 49 51 52 53 52 52 52 53 52 51 50 49 49 49 49 49 48 48 47 46 46 46 46 46 45 45 46 46 46 46 45 45 44 43 42 41 40 39 38 38 36 35 35 34 33 33 33 32 31 31 31 30 30 30 29
45 45 46 47 47 46 47 47 49 51 52 53 53 52 52 52 52 51 50 49 49 49 49 49 48 48 47 47 47 47 48 47 44 43 43 44 45 46 46 46 45 44 43 41 41 40 40 39 38 37 36 35 35 34 34 34 33 33 32 32 32 32 31
45 43 44 45 46 47 48 48 49 50 51 51 51 50 50 50 50 50 50 49 49 49 49 49 48 48 48 47 47 48 48 47 44 41 40 41 43 45 46 47 46 45 44 42 42 41 41 40 40 39 38 37 36 36 35 35 36 35 34 34 34 34 34
43 42 43 44 46 48 50 51 50 50 49 49 49 48 47 48 48 48 48 48 48 48 48 48 48 48 48 47 47 47 48 47 45 42 41 41 43 45 47 47 47 46 45 44 43 42 41 41 40 40 39 39 38 38 37 38 38 37 36 35 35 35 35
41 41 42 44 47 50 52 51 50 49 49 48 48 48 47 47 47 48 48 48 48 47 47 47 47 47 48 47 47 46 45 46 45 43 42 42 43 44 46 47 47 47 47 46 45 43 42 42 41 41 41 40 40 40 40 40 39 38 37 36 36 36 36
39 41 41 44 47 48 48 48 47 47 48 48 49 48 48 48 47 48 48 48 48 46 45 45 46 46 47 47 46 44 43 43 43 43 43 43 44 44 45 46 47 48 48 47 46 45 44 43 43 42 42 41 41 41 41 41 40 39 38 37 37 37 38
38 41 43 44 44 43 43 45 45 46 47 49 49 48 48 48 48 48 48 48 47 45 43 42 42 44 45 45 44 43 42 41 40 41 42 43 44 45 45 46 47 48 48 48 47 46 45 45 44 44 43 42 43 42 42 42 41 40 39 39 38 39 39
37 39 41 43 42 42 44 44 45 47 47 47 47 47 46 46 46 46 45 45 45 44 43 42 41 42 43 43 43 42 40 39 38 38 39 40 42 44 45 46 47 48 48 48 48 47 46 46 45 45 44 44 44 44 43 42 41 40 40 39 39 38 39
29 31 33 36 38 40 42 42 42 44 44 43 43 43 43 43 42 40 39 40 41 42 43 43 42 43 43 43 42 40 39 38 37 37 37 37 38 41 43 45 46 47 48 48 48 48 47 47 46 46 45 45 45 44 43 43 41 40 40 39 38 37 37
25 26 26 28 31 32 34 35 36 37 38 39 39 39 40 40 39 37 36 36 38 40 41 42 43 44 44 43 41 40 39 38 37 37 36 36 37 39 41 43 44 46 47 47 48 48 48 47 47 46 46 45 45 44 44 43 41 40 39 38 37 36 36
30 28 26 23 24 23 23 24 26 28 31 33 33 34 35 36 36 35 34 34 36 39 40 42 43 44 44 43 42 40 39 38 38 38 37 36 38 39 40 41 41 43 44 46 47 48 48 47 47 47 47 46 45 46 45 43 41 40 39 37 36 35 36
35 34 32 28 25 23 20 20 19 19 22 24 25 26 28 31 33 34 33 32 34 37 39 41 42 43 43 43 42 41 40 39 38 38 38 38 39 40 40 40 39 40 41 43 45 46 48 48 48 47 47 46 46 47 46 44 42 41 40 38 37 36 36
35 35 33 31 30 28 26 24 22 20 19 20 21 20 21 24 27 30 31 31 32 35 37 40 42 42 42 43 42 41 40 40 40 39 39 39 40 40 39 39 39 39 39 40 41 42 44 45 47 47 47 47 47 47 47 46 44 43 41 40 38 37 37
34 32 31 29 27 26 25 23 21 20 20 20 19 17 17 19 22 25 26 27 28 32 35 38 39 40 40 40 41 40 40 41 41 41 40 40 39 39 39 38 37 37 38 39 39 39 39 41 43 45 46 47 47 47 47 46 45 44 43 41 40 39 38
30 29 28 25 23 21 20 19 18 17 16 15 14 14 15 16 18 20 22 23 25 29 31 34 35 35 36 37 38 40 41 41 42 42 41 40 39 38 38 38 38 38 38 39 39 38 38 39 41 42 43 44 45 46 46 46 45 44 43 41 40 39 38
27 26 25 22 19 17 16 14 13 11 11 9 8 8 11 13 14 15 17 19 21 23 26 29 31 32 33 34 35 37 38 39 41 42 42 40 38 37 38 38 39 39 39 39 39 39 39 39 39 41 41 42 44 45 45 45 44 43 43 41 41 40 39
25 23 21 19 16 15 14 11 8 6 5 4 2 3 6 9 11 11 12 14 16 18 20 23 27 30 33 34 34 35 35 35 36 37 39 40 39 39 39 39 40 41 40 40 39 39 39 38 38 39 40 41 42 43 43 43 42 42 41 40 40 39 39
22 21 20 18 16 13 11 8 5 3 4 3 2 1 4 7 8 9 11 12 14 16 17 19 22 25 29 32 33 33 34 34 33 33 34 36 37 39 40 39 40 41 42 41 41 40 39 39 38 39 39 39 40 40 40 40 40 39 38 38 36 36 35
20 19 19 18 16 12 9 7 5 5 4 4 4 3 2 5 7 9 11 13 14 16 17 18 19 20 23 27 30 31 31 31 31 31 31 31 33 35 38 39 40 41 41 41 42 41 40 39 38 38 38 38 38 37 37 37 37 37 36 35 33 32 32
19 18 18 17 15 11 8 7 5 5 5 5 4 4 3 3 5 8 10 12 14 16 17 18 19 19 19 21 25 28 29 30 30 30 29 30 30 32 35 38 38 39 40 41 41 41 40 39 37 36 36 36 35 34 34 34 34 35 35 33 31 30 29
17 17 17 17 15 12 9 7 5 5 6 6 5 5 4 5 6 6 8 11 13 14 16 17 18 19 19 19 20 23 26 29 31 31 29 29 30 30 31 33 34 36 37 39 40 40 39 37 36 34 33 33 32 31 30 29 31 32 33 32 29 27 26
16 16 17 16 14 11 9 8 8 8 9 8 8 6 7 8 8 8 8 10 12 13 14 15 16 18 18 18 18 19 21 25 29 31 31 29 29 29 30 31 32 33 35 36 37 38 37 35 33 31 30 30 29 27 26 27 28 29 29 28 27 26 24
16 15 15 15 13 12 10 10 10 10 10 10 9 9 8 9 10 11 11 11 11 13 13 13 14 16 17 17 17 17 18 20 24 28 30 29 28 29 29 30 31 32 32 33 33 33 32 30 29 28 27 26 25 24 25 26 26 26 26 26 25 25 24
15 13 12 12 12 12 11 10 9 9 9 9 10 11 11 9 11 12 13 12 12 12 13 14 13 12 13 15 16 17 17 18 21 25 27 28 28 28 28 29 30 29 29 28 27 27 25 24 24 24 23 23 23 23 24 24 24 24 24 24 24 23 23
13 11 11 10 10 10 9 7 7 8 9 9 11 13 13 11 12 13 12 12 12 11 12 13 13 12 11 12 14 15 16 17 19 22 24 25 26 26 27 27 27 26 25 24 23 21 20 20 20 21 21 21 22 22 22 22 23 23 23 23 23 22 22
11 10 11 11 10 9 7 6 6 7 8 10 11 13 13 13 13 14 12 9 9 10 10 12 13 13 12 11 11 12 14 16 17 19 21 22 24 25 26 26 26 25 24 24 23 22 20 20 20 21 21 21 20 21 21 20 21 21 22 22 22 21 21
8 8 10 10 9 7 6 6 7 7 9 10 11 13 13 12 13 14 10 7 7 8 8 11 13 14 13 13 13 13 14 16 17 18 20 22 23 24 24 24 24 24 23 23 23 23 22 22 21 21 20 19 19 19 19 20 20 19 18 19 19 18 18